<?xml version="1.0" encoding="UTF-8" standalone="no" ?>
<gpx xmlns="http://www.topografix.com/GPX/1/1" xmlns:xsi="http://www.w3.org/2001/XMLSchema-instance" xsi:schemaLocation="http://www.topografix.com/GPX/1/1 http://www.topografix.com/GPX/1/1/gpx.xsd" version="1.1" creator="VisuGPX - https://www.visugpx.com">
  <metadata>
    <name>153_Circuit 56 km Les Herbiers_Les Herbiers édité par cth85.com</name>
    <desc><![CDATA[Circuit de 74 km passant par:
Les Herbiers
D23 Saint Paul en Pareds
la davière
Le Boupère
D13 La Meilleraie Tillay
le puy germon
D113 Monsireigne 
Sigournais
D39 Saint germain de Princay
direction St Vincent Sterlanges sur 3 km
à droite D113 Mouchamps
D13 direction l'oie
la bonnière
le parc soubise
Vendrennes
D53 Mesnard la barotière
D11 Les Herbiers.
]]></desc>
  </metadata>
  <trk>
    <name><![CDATA[56_153 cth85.com]]></name>
    <trkseg>
      <trkpt lat="46.8634" lon="-1.0061">
        <ele>118.5</ele>
        <extensions>
          <visugpx:TrkExtension xmlns:visugpx="https://www.visugpx.com/editgpx/">
            <visugpx:node>10</visugpx:node>
            </visugpx:TrkExtension>
        </extensions>
      </trkpt>
      <trkpt lat="46.86335" lon="-1.00614">
        <ele>118.2</ele>
        <time>2010-01-01T00:00:36Z</time>
        <extensions>
          <visugpx:TrkExtension xmlns:visugpx="https://www.visugpx.com/editgpx/">
            <visugpx:node>8</visugpx:node>
            </visugpx:TrkExtension>
        </extensions>
      </trkpt>
      <trkpt lat="46.86335" lon="-1.00614">
        <ele>118.2</ele>
        <time>2010-01-01T00:00:36Z</time>
        <extensions>
          <visugpx:TrkExtension xmlns:visugpx="https://www.visugpx.com/editgpx/">
            <visugpx:node>8</visugpx:node>
            </visugpx:TrkExtension>
        </extensions>
      </trkpt>
      <trkpt lat="46.86315" lon="-1.00632">
        <ele>119</ele>
        <time>2010-01-01T00:00:40Z</time>
      </trkpt>
      <trkpt lat="46.8627" lon="-1.00662">
        <ele>118</ele>
        <time>2010-01-01T00:00:48Z</time>
      </trkpt>
      <trkpt lat="46.86182" lon="-1.00705">
        <ele>116</ele>
        <time>2010-01-01T00:01:03Z</time>
      </trkpt>
      <trkpt lat="46.86138" lon="-1.00732">
        <ele>116</ele>
        <time>2010-01-01T00:01:11Z</time>
      </trkpt>
      <trkpt lat="46.86094" lon="-1.00769">
        <ele>115</ele>
        <time>2010-01-01T00:01:20Z</time>
      </trkpt>
      <trkpt lat="46.86055" lon="-1.00815">
        <ele>114</ele>
        <time>2010-01-01T00:01:28Z</time>
      </trkpt>
      <trkpt lat="46.86002" lon="-1.00886">
        <ele>112</ele>
        <time>2010-01-01T00:01:40Z</time>
      </trkpt>
      <trkpt lat="46.85962" lon="-1.0095">
        <ele>113</ele>
        <time>2010-01-01T00:01:50Z</time>
      </trkpt>
      <trkpt lat="46.85951" lon="-1.00963">
        <ele>113</ele>
        <time>2010-01-01T00:01:52Z</time>
      </trkpt>
      <trkpt lat="46.8595" lon="-1.00968">
        <ele>113</ele>
        <time>2010-01-01T00:01:53Z</time>
      </trkpt>
      <trkpt lat="46.85947" lon="-1.0097">
        <ele>113</ele>
        <time>2010-01-01T00:01:54Z</time>
      </trkpt>
      <trkpt lat="46.85941" lon="-1.00971">
        <ele>113</ele>
        <time>2010-01-01T00:01:55Z</time>
      </trkpt>
      <trkpt lat="46.85931" lon="-1.00971">
        <ele>113</ele>
        <time>2010-01-01T00:01:56Z</time>
      </trkpt>
      <trkpt lat="46.85879" lon="-1.00946">
        <ele>113</ele>
        <time>2010-01-01T00:02:05Z</time>
      </trkpt>
      <trkpt lat="46.85855" lon="-1.0094">
        <ele>113</ele>
        <time>2010-01-01T00:02:09Z</time>
      </trkpt>
      <trkpt lat="46.85853" lon="-1.00942">
        <ele>113</ele>
        <time>2010-01-01T00:02:10Z</time>
      </trkpt>
      <trkpt lat="46.85847" lon="-1.0094">
        <ele>113</ele>
        <time>2010-01-01T00:02:11Z</time>
      </trkpt>
      <trkpt lat="46.85842" lon="-1.00935">
        <ele>113</ele>
        <time>2010-01-01T00:02:12Z</time>
      </trkpt>
      <trkpt lat="46.8584" lon="-1.00929">
        <ele>113</ele>
        <time>2010-01-01T00:02:13Z</time>
      </trkpt>
      <trkpt lat="46.8584" lon="-1.00918">
        <ele>113</ele>
        <time>2010-01-01T00:02:14Z</time>
      </trkpt>
      <trkpt lat="46.85689" lon="-1.0083">
        <ele>112</ele>
        <time>2010-01-01T00:02:41Z</time>
      </trkpt>
      <trkpt lat="46.85562" lon="-1.00711">
        <ele>108</ele>
        <time>2010-01-01T00:03:06Z</time>
      </trkpt>
      <trkpt lat="46.85483" lon="-1.00655">
        <ele>108</ele>
        <time>2010-01-01T00:03:21Z</time>
      </trkpt>
      <trkpt lat="46.85442" lon="-1.00633">
        <ele>108</ele>
        <time>2010-01-01T00:03:28Z</time>
      </trkpt>
      <trkpt lat="46.85347" lon="-1.00588">
        <ele>109</ele>
        <time>2010-01-01T00:03:45Z</time>
      </trkpt>
      <trkpt lat="46.85281" lon="-1.00571">
        <ele>110</ele>
        <time>2010-01-01T00:03:56Z</time>
      </trkpt>
      <trkpt lat="46.85104" lon="-1.00442">
        <ele>110</ele>
        <time>2010-01-01T00:04:29Z</time>
      </trkpt>
      <trkpt lat="46.85078" lon="-1.00417">
        <ele>111</ele>
        <time>2010-01-01T00:04:34Z</time>
      </trkpt>
      <trkpt lat="46.85054" lon="-1.0041">
        <ele>111</ele>
        <time>2010-01-01T00:04:38Z</time>
      </trkpt>
      <trkpt lat="46.85028" lon="-1.00398">
        <ele>112</ele>
        <time>2010-01-01T00:04:43Z</time>
      </trkpt>
      <trkpt lat="46.84991" lon="-1.00386">
        <ele>113</ele>
        <time>2010-01-01T00:04:49Z</time>
      </trkpt>
      <trkpt lat="46.84953" lon="-1.00379">
        <ele>113</ele>
        <time>2010-01-01T00:04:55Z</time>
      </trkpt>
      <trkpt lat="46.84906" lon="-1.00376">
        <ele>114</ele>
        <time>2010-01-01T00:05:03Z</time>
      </trkpt>
      <trkpt lat="46.84867" lon="-1.00377">
        <ele>115</ele>
        <time>2010-01-01T00:05:10Z</time>
      </trkpt>
      <trkpt lat="46.84833" lon="-1.00383">
        <ele>115</ele>
        <time>2010-01-01T00:05:16Z</time>
      </trkpt>
      <trkpt lat="46.84769" lon="-1.00402">
        <ele>116</ele>
        <time>2010-01-01T00:05:26Z</time>
      </trkpt>
      <trkpt lat="46.84696" lon="-1.00435">
        <ele>114</ele>
        <time>2010-01-01T00:05:39Z</time>
      </trkpt>
      <trkpt lat="46.84652" lon="-1.0045">
        <ele>113</ele>
        <time>2010-01-01T00:05:47Z</time>
      </trkpt>
      <trkpt lat="46.84589" lon="-1.00467">
        <ele>111</ele>
        <time>2010-01-01T00:05:57Z</time>
      </trkpt>
      <trkpt lat="46.84536" lon="-1.00469">
        <ele>111</ele>
        <time>2010-01-01T00:06:06Z</time>
      </trkpt>
      <trkpt lat="46.84502" lon="-1.00473">
        <ele>111</ele>
        <time>2010-01-01T00:06:12Z</time>
      </trkpt>
      <trkpt lat="46.84501" lon="-1.00481">
        <ele>111</ele>
        <time>2010-01-01T00:06:13Z</time>
      </trkpt>
      <trkpt lat="46.84497" lon="-1.00489">
        <ele>111</ele>
        <time>2010-01-01T00:06:14Z</time>
      </trkpt>
      <trkpt lat="46.84492" lon="-1.00493">
        <ele>111</ele>
        <time>2010-01-01T00:06:15Z</time>
      </trkpt>
      <trkpt lat="46.84486" lon="-1.00495">
        <ele>111</ele>
        <time>2010-01-01T00:06:16Z</time>
      </trkpt>
      <trkpt lat="46.84481" lon="-1.00494">
        <ele>111</ele>
        <time>2010-01-01T00:06:17Z</time>
      </trkpt>
      <trkpt lat="46.84475" lon="-1.00489">
        <ele>112</ele>
        <time>2010-01-01T00:06:18Z</time>
      </trkpt>
      <trkpt lat="46.84471" lon="-1.00482">
        <ele>112</ele>
        <time>2010-01-01T00:06:19Z</time>
      </trkpt>
      <trkpt lat="46.8447" lon="-1.0047">
        <ele>112</ele>
        <time>2010-01-01T00:06:20Z</time>
      </trkpt>
      <trkpt lat="46.8351" lon="-1.00397">
        <ele>127</ele>
        <time>2010-01-01T00:09:01Z</time>
      </trkpt>
      <trkpt lat="46.83335" lon="-1.0038">
        <ele>127</ele>
        <time>2010-01-01T00:09:30Z</time>
      </trkpt>
      <trkpt lat="46.83156" lon="-1.00359">
        <ele>121</ele>
        <time>2010-01-01T00:10:00Z</time>
      </trkpt>
      <trkpt lat="46.82996" lon="-1.00348">
        <ele>114</ele>
        <time>2010-01-01T00:10:27Z</time>
      </trkpt>
      <trkpt lat="46.82947" lon="-1.00344">
        <ele>113</ele>
        <time>2010-01-01T00:10:35Z</time>
      </trkpt>
      <trkpt lat="46.82865" lon="-1.00303">
        <ele>111</ele>
        <time>2010-01-01T00:10:49Z</time>
      </trkpt>
      <trkpt lat="46.82829" lon="-1.00251">
        <ele>110</ele>
        <time>2010-01-01T00:10:58Z</time>
      </trkpt>
      <trkpt lat="46.82812" lon="-1.00224">
        <ele>110</ele>
        <time>2010-01-01T00:11:02Z</time>
      </trkpt>
      <trkpt lat="46.82742" lon="-1.00018">
        <ele>106</ele>
        <time>2010-01-01T00:11:28Z</time>
      </trkpt>
      <trkpt lat="46.82686" lon="-0.99843">
        <ele>100</ele>
        <time>2010-01-01T00:11:50Z</time>
      </trkpt>
      <trkpt lat="46.82658" lon="-0.9976">
        <ele>97</ele>
        <time>2010-01-01T00:12:01Z</time>
      </trkpt>
      <trkpt lat="46.82638" lon="-0.99711">
        <ele>95</ele>
        <time>2010-01-01T00:12:07Z</time>
      </trkpt>
      <trkpt lat="46.82622" lon="-0.99683">
        <ele>94</ele>
        <time>2010-01-01T00:12:11Z</time>
      </trkpt>
      <trkpt lat="46.82594" lon="-0.99655">
        <ele>92</ele>
        <time>2010-01-01T00:12:17Z</time>
      </trkpt>
      <trkpt lat="46.82561" lon="-0.99642">
        <ele>92</ele>
        <time>2010-01-01T00:12:23Z</time>
      </trkpt>
      <trkpt lat="46.82408" lon="-0.99618">
        <ele>99</ele>
        <time>2010-01-01T00:12:48Z</time>
      </trkpt>
      <trkpt lat="46.82377" lon="-0.996">
        <ele>101</ele>
        <time>2010-01-01T00:12:54Z</time>
      </trkpt>
      <trkpt lat="46.8235" lon="-0.99565">
        <ele>105</ele>
        <time>2010-01-01T00:13:00Z</time>
      </trkpt>
      <trkpt lat="46.82321" lon="-0.99495">
        <ele>109</ele>
        <time>2010-01-01T00:13:09Z</time>
      </trkpt>
      <trkpt lat="46.82303" lon="-0.99479">
        <ele>109</ele>
        <time>2010-01-01T00:13:13Z</time>
      </trkpt>
      <trkpt lat="46.82254" lon="-0.9945">
        <ele>110</ele>
        <time>2010-01-01T00:13:22Z</time>
      </trkpt>
      <trkpt lat="46.82256" lon="-0.99398">
        <ele>112</ele>
        <time>2010-01-01T00:13:28Z</time>
      </trkpt>
      <trkpt lat="46.82255" lon="-0.99362">
        <ele>113</ele>
        <time>2010-01-01T00:13:32Z</time>
      </trkpt>
      <trkpt lat="46.82248" lon="-0.99317">
        <ele>115</ele>
        <time>2010-01-01T00:13:37Z</time>
      </trkpt>
      <trkpt lat="46.82242" lon="-0.99289">
        <ele>116</ele>
        <time>2010-01-01T00:13:40Z</time>
      </trkpt>
      <trkpt lat="46.82231" lon="-0.99223">
        <ele>118</ele>
        <time>2010-01-01T00:13:48Z</time>
      </trkpt>
      <trkpt lat="46.82213" lon="-0.99131">
        <ele>118</ele>
        <time>2010-01-01T00:13:59Z</time>
      </trkpt>
      <trkpt lat="46.822" lon="-0.99073">
        <ele>117</ele>
        <time>2010-01-01T00:14:06Z</time>
      </trkpt>
      <trkpt lat="46.82185" lon="-0.99056">
        <ele>116</ele>
        <time>2010-01-01T00:14:09Z</time>
      </trkpt>
      <trkpt lat="46.82151" lon="-0.99023">
        <ele>113</ele>
        <time>2010-01-01T00:14:16Z</time>
      </trkpt>
      <trkpt lat="46.819" lon="-0.98862">
        <ele>108</ele>
        <time>2010-01-01T00:15:02Z</time>
      </trkpt>
      <trkpt lat="46.81727" lon="-0.98754">
        <ele>113</ele>
        <time>2010-01-01T00:15:33Z</time>
      </trkpt>
      <trkpt lat="46.81554" lon="-0.98684">
        <ele>109</ele>
        <time>2010-01-01T00:16:03Z</time>
      </trkpt>
      <trkpt lat="46.81404" lon="-0.98641">
        <ele>101</ele>
        <time>2010-01-01T00:16:29Z</time>
      </trkpt>
      <trkpt lat="46.81134" lon="-0.98542">
        <ele>99</ele>
        <time>2010-01-01T00:17:15Z</time>
      </trkpt>
      <trkpt lat="46.80986" lon="-0.98182">
        <ele>105</ele>
        <time>2010-01-01T00:18:03Z</time>
      </trkpt>
      <trkpt lat="46.8093" lon="-0.98018">
        <ele>107</ele>
        <time>2010-01-01T00:18:24Z</time>
      </trkpt>
      <trkpt lat="46.809" lon="-0.97882">
        <ele>108</ele>
        <time>2010-01-01T00:18:40Z</time>
      </trkpt>
      <trkpt lat="46.80903" lon="-0.97671">
        <ele>109</ele>
        <time>2010-01-01T00:19:04Z</time>
      </trkpt>
      <trkpt lat="46.80894" lon="-0.97598">
        <ele>109</ele>
        <time>2010-01-01T00:19:13Z</time>
      </trkpt>
      <trkpt lat="46.80876" lon="-0.97514">
        <ele>111</ele>
        <time>2010-01-01T00:19:23Z</time>
      </trkpt>
      <trkpt lat="46.80782" lon="-0.97228">
        <ele>110</ele>
        <time>2010-01-01T00:19:59Z</time>
      </trkpt>
      <trkpt lat="46.8071" lon="-0.97038">
        <ele>106</ele>
        <time>2010-01-01T00:20:24Z</time>
      </trkpt>
      <trkpt lat="46.80622" lon="-0.96935">
        <ele>102</ele>
        <time>2010-01-01T00:20:43Z</time>
      </trkpt>
      <trkpt lat="46.80564" lon="-0.96805">
        <ele>102</ele>
        <time>2010-01-01T00:21:00Z</time>
      </trkpt>
      <trkpt lat="46.80462" lon="-0.96733">
        <ele>104</ele>
        <time>2010-01-01T00:21:19Z</time>
      </trkpt>
      <trkpt lat="46.8043" lon="-0.96693">
        <ele>104</ele>
        <time>2010-01-01T00:21:26Z</time>
      </trkpt>
      <trkpt lat="46.80362" lon="-0.96611">
        <ele>103</ele>
        <time>2010-01-01T00:21:41Z</time>
      </trkpt>
      <trkpt lat="46.80324" lon="-0.96557">
        <ele>102</ele>
        <time>2010-01-01T00:21:50Z</time>
      </trkpt>
      <trkpt lat="46.80266" lon="-0.96448">
        <ele>100</ele>
        <time>2010-01-01T00:22:06Z</time>
      </trkpt>
      <trkpt lat="46.80256" lon="-0.96379">
        <ele>100</ele>
        <time>2010-01-01T00:22:14Z</time>
      </trkpt>
      <trkpt lat="46.80238" lon="-0.963">
        <ele>99</ele>
        <time>2010-01-01T00:22:23Z</time>
      </trkpt>
      <trkpt lat="46.80183" lon="-0.96197">
        <ele>100</ele>
        <time>2010-01-01T00:22:38Z</time>
      </trkpt>
      <trkpt lat="46.80162" lon="-0.96137">
        <ele>100</ele>
        <time>2010-01-01T00:22:46Z</time>
      </trkpt>
      <trkpt lat="46.80152" lon="-0.96077">
        <ele>101</ele>
        <time>2010-01-01T00:22:53Z</time>
      </trkpt>
      <trkpt lat="46.8015" lon="-0.96006">
        <ele>102</ele>
        <time>2010-01-01T00:23:01Z</time>
      </trkpt>
      <trkpt lat="46.80153" lon="-0.95942">
        <ele>103</ele>
        <time>2010-01-01T00:23:08Z</time>
      </trkpt>
      <trkpt lat="46.80177" lon="-0.95804">
        <ele>106</ele>
        <time>2010-01-01T00:23:24Z</time>
      </trkpt>
      <trkpt lat="46.80209" lon="-0.95723">
        <ele>107</ele>
        <time>2010-01-01T00:23:35Z</time>
      </trkpt>
      <trkpt lat="46.80211" lon="-0.9568">
        <ele>108</ele>
        <time>2010-01-01T00:23:40Z</time>
      </trkpt>
      <trkpt lat="46.80199" lon="-0.95637">
        <ele>108</ele>
        <time>2010-01-01T00:23:45Z</time>
      </trkpt>
      <trkpt lat="46.80154" lon="-0.95578">
        <ele>109</ele>
        <time>2010-01-01T00:23:55Z</time>
      </trkpt>
      <trkpt lat="46.80128" lon="-0.95504">
        <ele>109</ele>
        <time>2010-01-01T00:24:05Z</time>
      </trkpt>
      <trkpt lat="46.80116" lon="-0.95436">
        <ele>110</ele>
        <time>2010-01-01T00:24:13Z</time>
      </trkpt>
      <trkpt lat="46.80105" lon="-0.95346">
        <ele>111</ele>
        <time>2010-01-01T00:24:23Z</time>
      </trkpt>
      <trkpt lat="46.80082" lon="-0.95263">
        <ele>112</ele>
        <time>2010-01-01T00:24:34Z</time>
      </trkpt>
      <trkpt lat="46.80063" lon="-0.95142">
        <ele>115</ele>
        <time>2010-01-01T00:24:48Z</time>
      </trkpt>
      <trkpt lat="46.80055" lon="-0.95102">
        <ele>116</ele>
        <time>2010-01-01T00:24:53Z</time>
      </trkpt>
      <trkpt lat="46.80041" lon="-0.95065">
        <ele>117</ele>
        <time>2010-01-01T00:24:57Z</time>
      </trkpt>
      <trkpt lat="46.80007" lon="-0.94989">
        <ele>119</ele>
        <time>2010-01-01T00:25:08Z</time>
      </trkpt>
      <trkpt lat="46.8" lon="-0.94914">
        <ele>120</ele>
        <time>2010-01-01T00:25:16Z</time>
      </trkpt>
      <trkpt lat="46.80002" lon="-0.94833">
        <ele>122</ele>
        <time>2010-01-01T00:25:26Z</time>
      </trkpt>
      <trkpt lat="46.79993" lon="-0.94794">
        <ele>121</ele>
        <time>2010-01-01T00:25:30Z</time>
      </trkpt>
      <trkpt lat="46.79876" lon="-0.94567">
        <ele>117</ele>
        <time>2010-01-01T00:26:03Z</time>
      </trkpt>
      <trkpt lat="46.79833" lon="-0.9446">
        <ele>118</ele>
        <time>2010-01-01T00:26:17Z</time>
      </trkpt>
      <trkpt lat="46.79808" lon="-0.94269">
        <ele>122</ele>
        <time>2010-01-01T00:26:39Z</time>
      </trkpt>
      <trkpt lat="46.79778" lon="-0.94098">
        <ele>124</ele>
        <time>2010-01-01T00:26:59Z</time>
      </trkpt>
      <trkpt lat="46.7968" lon="-0.93637">
        <ele>130</ele>
        <time>2010-01-01T00:27:54Z</time>
      </trkpt>
      <trkpt lat="46.7968" lon="-0.93559">
        <ele>131</ele>
        <time>2010-01-01T00:28:03Z</time>
      </trkpt>
      <trkpt lat="46.79666" lon="-0.93455">
        <ele>133</ele>
        <time>2010-01-01T00:28:15Z</time>
      </trkpt>
      <trkpt lat="46.79634" lon="-0.93312">
        <ele>135</ele>
        <time>2010-01-01T00:28:33Z</time>
      </trkpt>
      <trkpt lat="46.7963" lon="-0.93303">
        <ele>136</ele>
        <time>2010-01-01T00:28:34Z</time>
      </trkpt>
      <trkpt lat="46.79617" lon="-0.93281">
        <ele>136</ele>
        <time>2010-01-01T00:28:37Z</time>
      </trkpt>
      <trkpt lat="46.79615" lon="-0.93272">
        <ele>137</ele>
        <time>2010-01-01T00:28:38Z</time>
      </trkpt>
      <trkpt lat="46.79615" lon="-0.93261">
        <ele>137</ele>
        <time>2010-01-01T00:28:39Z</time>
      </trkpt>
      <trkpt lat="46.79612" lon="-0.93257">
        <ele>137</ele>
        <time>2010-01-01T00:28:40Z</time>
      </trkpt>
      <trkpt lat="46.79611" lon="-0.93251">
        <ele>137</ele>
        <time>2010-01-01T00:28:41Z</time>
      </trkpt>
      <trkpt lat="46.79583" lon="-0.93186">
        <ele>139</ele>
        <time>2010-01-01T00:28:50Z</time>
      </trkpt>
      <trkpt lat="46.79578" lon="-0.93176">
        <ele>139</ele>
        <time>2010-01-01T00:28:51Z</time>
      </trkpt>
      <trkpt lat="46.79569" lon="-0.93182">
        <ele>139</ele>
        <time>2010-01-01T00:28:53Z</time>
      </trkpt>
      <trkpt lat="46.79569" lon="-0.93183">
        <ele>139</ele>
        <time>2010-01-01T00:28:53Z</time>
      </trkpt>
      <trkpt lat="46.79578" lon="-0.93176">
        <ele>139</ele>
        <time>2010-01-01T00:28:55Z</time>
      </trkpt>
      <trkpt lat="46.79539" lon="-0.93108">
        <ele>139</ele>
        <time>2010-01-01T00:29:05Z</time>
      </trkpt>
      <trkpt lat="46.79512" lon="-0.93082">
        <ele>138</ele>
        <time>2010-01-01T00:29:10Z</time>
      </trkpt>
      <trkpt lat="46.79449" lon="-0.93038">
        <ele>135</ele>
        <time>2010-01-01T00:29:22Z</time>
      </trkpt>
      <trkpt lat="46.79444" lon="-0.93001">
        <ele>134</ele>
        <time>2010-01-01T00:29:26Z</time>
      </trkpt>
      <trkpt lat="46.79455" lon="-0.92971">
        <ele>134</ele>
        <time>2010-01-01T00:29:30Z</time>
      </trkpt>
      <trkpt lat="46.7947" lon="-0.92884">
        <ele>133</ele>
        <time>2010-01-01T00:29:40Z</time>
      </trkpt>
      <trkpt lat="46.7946" lon="-0.92847">
        <ele>132</ele>
        <time>2010-01-01T00:29:45Z</time>
      </trkpt>
      <trkpt lat="46.79463" lon="-0.92837">
        <ele>132</ele>
        <time>2010-01-01T00:29:46Z</time>
      </trkpt>
      <trkpt lat="46.79477" lon="-0.92816">
        <ele>133</ele>
        <time>2010-01-01T00:29:49Z</time>
      </trkpt>
      <trkpt lat="46.79472" lon="-0.92783">
        <ele>134</ele>
        <time>2010-01-01T00:29:53Z</time>
      </trkpt>
      <trkpt lat="46.79463" lon="-0.9276">
        <ele>134</ele>
        <time>2010-01-01T00:29:56Z</time>
      </trkpt>
      <trkpt lat="46.79437" lon="-0.92724">
        <ele>131</ele>
        <time>2010-01-01T00:30:02Z</time>
      </trkpt>
      <trkpt lat="46.79438" lon="-0.92701">
        <ele>131</ele>
        <time>2010-01-01T00:30:05Z</time>
      </trkpt>
      <trkpt lat="46.79443" lon="-0.92672">
        <ele>131</ele>
        <time>2010-01-01T00:30:08Z</time>
      </trkpt>
      <trkpt lat="46.79439" lon="-0.92645">
        <ele>130</ele>
        <time>2010-01-01T00:30:11Z</time>
      </trkpt>
      <trkpt lat="46.79429" lon="-0.92605">
        <ele>128</ele>
        <time>2010-01-01T00:30:16Z</time>
      </trkpt>
      <trkpt lat="46.79438" lon="-0.92582">
        <ele>128</ele>
        <time>2010-01-01T00:30:19Z</time>
      </trkpt>
      <trkpt lat="46.79402" lon="-0.92532">
        <ele>124.5</ele>
      </trkpt>
      <trkpt lat="46.79371" lon="-0.92468">
        <ele>122</ele>
        <time>2010-01-01T00:30:36Z</time>
      </trkpt>
      <trkpt lat="46.79346" lon="-0.9243">
        <ele>119</ele>
        <time>2010-01-01T00:30:42Z</time>
      </trkpt>
      <trkpt lat="46.79335" lon="-0.92426">
        <ele>116.5</ele>
        <time>2010-01-01T00:30:44Z</time>
      </trkpt>
      <trkpt lat="46.79321" lon="-0.92434">
        <ele>116.2</ele>
        <time>2010-01-01T00:30:46Z</time>
      </trkpt>
      <trkpt lat="46.79301" lon="-0.92448">
        <ele>116.3</ele>
      </trkpt>
      <trkpt lat="46.79274" lon="-0.92501">
        <ele>119</ele>
      </trkpt>
      <trkpt lat="46.79252" lon="-0.92556">
        <ele>120.9</ele>
      </trkpt>
      <trkpt lat="46.79219" lon="-0.92588">
        <ele>124.3</ele>
        <time>2010-01-01T00:31:03Z</time>
      </trkpt>
      <trkpt lat="46.79183" lon="-0.92615">
        <ele>126.5</ele>
      </trkpt>
      <trkpt lat="46.79166" lon="-0.92641">
        <ele>128</ele>
        <time>2010-01-01T00:31:22Z</time>
      </trkpt>
      <trkpt lat="46.79157" lon="-0.92653">
        <ele>128.5</ele>
      </trkpt>
      <trkpt lat="46.79144" lon="-0.92665">
        <ele>129.6</ele>
      </trkpt>
      <trkpt lat="46.79116" lon="-0.92669">
        <ele>130.9</ele>
      </trkpt>
      <trkpt lat="46.79083" lon="-0.92674">
        <ele>132.5</ele>
      </trkpt>
      <trkpt lat="46.7906" lon="-0.92678">
        <ele>134.5</ele>
      </trkpt>
      <trkpt lat="46.7903" lon="-0.927">
        <ele>136.2</ele>
      </trkpt>
      <trkpt lat="46.78997" lon="-0.92738">
        <ele>136.4</ele>
      </trkpt>
      <trkpt lat="46.78971" lon="-0.92772">
        <ele>135.7</ele>
      </trkpt>
      <trkpt lat="46.7895" lon="-0.928">
        <ele>133.6</ele>
      </trkpt>
      <trkpt lat="46.78941" lon="-0.92806">
        <ele>132.8</ele>
      </trkpt>
      <trkpt lat="46.78922" lon="-0.92802">
        <ele>131.5</ele>
      </trkpt>
      <trkpt lat="46.78884" lon="-0.92796">
        <ele>128.4</ele>
      </trkpt>
      <trkpt lat="46.78818" lon="-0.92794">
        <ele>122.5</ele>
      </trkpt>
      <trkpt lat="46.78756" lon="-0.92796">
        <ele>118.3</ele>
      </trkpt>
      <trkpt lat="46.78719" lon="-0.92796">
        <ele>116.2</ele>
      </trkpt>
      <trkpt lat="46.78687" lon="-0.92802">
        <ele>114.6</ele>
      </trkpt>
      <trkpt lat="46.78653" lon="-0.92801">
        <ele>113.8</ele>
      </trkpt>
      <trkpt lat="46.78606" lon="-0.92787">
        <ele>114.1</ele>
      </trkpt>
      <trkpt lat="46.7853" lon="-0.92757">
        <ele>113.2</ele>
      </trkpt>
      <trkpt lat="46.78482" lon="-0.92736">
        <ele>113</ele>
      </trkpt>
      <trkpt lat="46.78418" lon="-0.92699">
        <ele>112.2</ele>
      </trkpt>
      <trkpt lat="46.78374" lon="-0.92667">
        <ele>108.9</ele>
      </trkpt>
      <trkpt lat="46.78351" lon="-0.9266">
        <ele>107.6</ele>
      </trkpt>
      <trkpt lat="46.78314" lon="-0.92654">
        <ele>105.1</ele>
      </trkpt>
      <trkpt lat="46.78291" lon="-0.92656">
        <ele>104.3</ele>
      </trkpt>
      <trkpt lat="46.78274" lon="-0.92664">
        <ele>103.8</ele>
      </trkpt>
      <trkpt lat="46.78247" lon="-0.92673">
        <ele>102.5</ele>
      </trkpt>
      <trkpt lat="46.78232" lon="-0.92676">
        <ele>101.4</ele>
      </trkpt>
      <trkpt lat="46.78218" lon="-0.92671">
        <ele>101.1</ele>
      </trkpt>
      <trkpt lat="46.78199" lon="-0.92657">
        <ele>101.2</ele>
      </trkpt>
      <trkpt lat="46.78188" lon="-0.92637">
        <ele>100.4</ele>
      </trkpt>
      <trkpt lat="46.78174" lon="-0.92606">
        <ele>100.3</ele>
      </trkpt>
      <trkpt lat="46.78165" lon="-0.92595">
        <ele>100.5</ele>
      </trkpt>
      <trkpt lat="46.78152" lon="-0.9259">
        <ele>100.8</ele>
      </trkpt>
      <trkpt lat="46.78123" lon="-0.92594">
        <ele>102.8</ele>
      </trkpt>
      <trkpt lat="46.78086" lon="-0.926">
        <ele>105.1</ele>
      </trkpt>
      <trkpt lat="46.78061" lon="-0.9261">
        <ele>106</ele>
      </trkpt>
      <trkpt lat="46.78034" lon="-0.92632">
        <ele>106.8</ele>
      </trkpt>
      <trkpt lat="46.78012" lon="-0.92638">
        <ele>106.4</ele>
      </trkpt>
      <trkpt lat="46.77979" lon="-0.92637">
        <ele>106</ele>
      </trkpt>
      <trkpt lat="46.77956" lon="-0.92638">
        <ele>106</ele>
      </trkpt>
      <trkpt lat="46.77939" lon="-0.92632">
        <ele>105.6</ele>
      </trkpt>
      <trkpt lat="46.77919" lon="-0.92614">
        <ele>105</ele>
      </trkpt>
      <trkpt lat="46.77891" lon="-0.92585">
        <ele>104.9</ele>
      </trkpt>
      <trkpt lat="46.77859" lon="-0.92553">
        <ele>105</ele>
      </trkpt>
      <trkpt lat="46.77831" lon="-0.92528">
        <ele>104.9</ele>
      </trkpt>
      <trkpt lat="46.77803" lon="-0.92509">
        <ele>103.9</ele>
      </trkpt>
      <trkpt lat="46.77777" lon="-0.92491">
        <ele>102.9</ele>
      </trkpt>
      <trkpt lat="46.77745" lon="-0.92478">
        <ele>99.7</ele>
      </trkpt>
      <trkpt lat="46.77709" lon="-0.92482">
        <ele>97.7</ele>
      </trkpt>
      <trkpt lat="46.77679" lon="-0.92495">
        <ele>96.8</ele>
      </trkpt>
      <trkpt lat="46.77649" lon="-0.92513">
        <ele>96.4</ele>
      </trkpt>
      <trkpt lat="46.7761" lon="-0.92528">
        <ele>93.8</ele>
      </trkpt>
      <trkpt lat="46.77603" lon="-0.92557">
        <ele>93.2</ele>
      </trkpt>
      <trkpt lat="46.776" lon="-0.92595">
        <ele>92.2</ele>
      </trkpt>
      <trkpt lat="46.77602" lon="-0.92648">
        <ele>92.2</ele>
      </trkpt>
      <trkpt lat="46.77601" lon="-0.92675">
        <ele>92</ele>
      </trkpt>
      <trkpt lat="46.77593" lon="-0.92699">
        <ele>91.8</ele>
      </trkpt>
      <trkpt lat="46.77575" lon="-0.92723">
        <ele>92.1</ele>
      </trkpt>
      <trkpt lat="46.7753" lon="-0.92753">
        <ele>95</ele>
      </trkpt>
      <trkpt lat="46.77472" lon="-0.92792">
        <ele>97.5</ele>
      </trkpt>
      <trkpt lat="46.77438" lon="-0.92817">
        <ele>97.8</ele>
      </trkpt>
      <trkpt lat="46.77401" lon="-0.92855">
        <ele>96.4</ele>
      </trkpt>
      <trkpt lat="46.77376" lon="-0.92879">
        <ele>95.5</ele>
      </trkpt>
      <trkpt lat="46.77369" lon="-0.92887">
        <ele>95.3</ele>
      </trkpt>
      <trkpt lat="46.77353" lon="-0.92909">
        <ele>94.3</ele>
      </trkpt>
      <trkpt lat="46.77331" lon="-0.9294">
        <ele>93.1</ele>
      </trkpt>
      <trkpt lat="46.77311" lon="-0.92972">
        <ele>91.2</ele>
      </trkpt>
      <trkpt lat="46.77294" lon="-0.93005">
        <ele>91.3</ele>
      </trkpt>
      <trkpt lat="46.77282" lon="-0.93023">
        <ele>92</ele>
      </trkpt>
      <trkpt lat="46.77268" lon="-0.93038">
        <ele>93.5</ele>
      </trkpt>
      <trkpt lat="46.7725" lon="-0.93052">
        <ele>94</ele>
      </trkpt>
      <trkpt lat="46.7722" lon="-0.93067">
        <ele>96.3</ele>
      </trkpt>
      <trkpt lat="46.77196" lon="-0.93081">
        <ele>96</ele>
      </trkpt>
      <trkpt lat="46.77171" lon="-0.93101">
        <ele>97.1</ele>
      </trkpt>
      <trkpt lat="46.77155" lon="-0.93112">
        <ele>98.1</ele>
      </trkpt>
      <trkpt lat="46.77141" lon="-0.93112">
        <ele>98.1</ele>
      </trkpt>
      <trkpt lat="46.7712" lon="-0.93105">
        <ele>97.8</ele>
      </trkpt>
      <trkpt lat="46.77103" lon="-0.93098">
        <ele>97</ele>
      </trkpt>
      <trkpt lat="46.77087" lon="-0.93098">
        <ele>95.8</ele>
      </trkpt>
      <trkpt lat="46.77053" lon="-0.93101">
        <ele>91.5</ele>
      </trkpt>
      <trkpt lat="46.77008" lon="-0.93108">
        <ele>86.6</ele>
      </trkpt>
      <trkpt lat="46.76974" lon="-0.93111">
        <ele>82.2</ele>
      </trkpt>
      <trkpt lat="46.76952" lon="-0.93109">
        <ele>80.3</ele>
      </trkpt>
      <trkpt lat="46.76937" lon="-0.93098">
        <ele>78.8</ele>
      </trkpt>
      <trkpt lat="46.76923" lon="-0.93075">
        <ele>77.1</ele>
      </trkpt>
      <trkpt lat="46.76908" lon="-0.93047">
        <ele>76.1</ele>
      </trkpt>
      <trkpt lat="46.76896" lon="-0.93064">
        <ele>76</ele>
      </trkpt>
      <trkpt lat="46.76869" lon="-0.93071">
        <ele>74.6</ele>
      </trkpt>
      <trkpt lat="46.76857" lon="-0.93089">
        <ele>75</ele>
      </trkpt>
      <trkpt lat="46.76843" lon="-0.93121">
        <ele>74.7</ele>
      </trkpt>
      <trkpt lat="46.76834" lon="-0.93149">
        <ele>76</ele>
      </trkpt>
      <trkpt lat="46.76812" lon="-0.9319">
        <ele>74.5</ele>
      </trkpt>
      <trkpt lat="46.768" lon="-0.93216">
        <ele>75.9</ele>
      </trkpt>
      <trkpt lat="46.7679" lon="-0.9322">
        <ele>74.4</ele>
      </trkpt>
      <trkpt lat="46.7677" lon="-0.93223">
        <ele>72.3</ele>
      </trkpt>
      <trkpt lat="46.76742" lon="-0.93223">
        <ele>73.3</ele>
      </trkpt>
      <trkpt lat="46.76712" lon="-0.93227">
        <ele>74.2</ele>
      </trkpt>
      <trkpt lat="46.76674" lon="-0.93234">
        <ele>76.2</ele>
      </trkpt>
      <trkpt lat="46.76643" lon="-0.93257">
        <ele>77.5</ele>
      </trkpt>
      <trkpt lat="46.76619" lon="-0.93281">
        <ele>79.8</ele>
      </trkpt>
      <trkpt lat="46.766" lon="-0.93322">
        <ele>83.5</ele>
      </trkpt>
      <trkpt lat="46.76595" lon="-0.9337">
        <ele>86.6</ele>
      </trkpt>
      <trkpt lat="46.76593" lon="-0.93415">
        <ele>89</ele>
      </trkpt>
      <trkpt lat="46.76593" lon="-0.93491">
        <ele>94.1</ele>
      </trkpt>
      <trkpt lat="46.76593" lon="-0.93546">
        <ele>98.5</ele>
      </trkpt>
      <trkpt lat="46.76588" lon="-0.93581">
        <ele>101.7</ele>
      </trkpt>
      <trkpt lat="46.76581" lon="-0.93604">
        <ele>103.8</ele>
      </trkpt>
      <trkpt lat="46.76557" lon="-0.93624">
        <ele>105</ele>
      </trkpt>
      <trkpt lat="46.76538" lon="-0.93641">
        <ele>104.3</ele>
      </trkpt>
      <trkpt lat="46.76518" lon="-0.9366">
        <ele>102.5</ele>
      </trkpt>
      <trkpt lat="46.76496" lon="-0.93671">
        <ele>100.7</ele>
      </trkpt>
      <trkpt lat="46.76483" lon="-0.93673">
        <ele>99.8</ele>
      </trkpt>
      <trkpt lat="46.76467" lon="-0.93681">
        <ele>98.3</ele>
      </trkpt>
      <trkpt lat="46.76457" lon="-0.93672">
        <ele>97.2</ele>
      </trkpt>
      <trkpt lat="46.76453" lon="-0.93662">
        <ele>97</ele>
      </trkpt>
      <trkpt lat="46.76452" lon="-0.93635">
        <ele>97.3</ele>
      </trkpt>
      <trkpt lat="46.76446" lon="-0.93625">
        <ele>97.2</ele>
      </trkpt>
      <trkpt lat="46.76441" lon="-0.93618">
        <ele>96.9</ele>
      </trkpt>
      <trkpt lat="46.76427" lon="-0.9361">
        <ele>94.9</ele>
      </trkpt>
      <trkpt lat="46.76405" lon="-0.93605">
        <ele>92.3</ele>
      </trkpt>
      <trkpt lat="46.76394" lon="-0.93591">
        <ele>91.5</ele>
      </trkpt>
      <trkpt lat="46.76379" lon="-0.93569">
        <ele>90.9</ele>
      </trkpt>
      <trkpt lat="46.76371" lon="-0.93552">
        <ele>90.4</ele>
      </trkpt>
      <trkpt lat="46.7636" lon="-0.93548">
        <ele>89</ele>
      </trkpt>
      <trkpt lat="46.76351" lon="-0.93547">
        <ele>88.9</ele>
      </trkpt>
      <trkpt lat="46.7633" lon="-0.93556">
        <ele>89.2</ele>
      </trkpt>
      <trkpt lat="46.76319" lon="-0.93574">
        <ele>89.4</ele>
      </trkpt>
      <trkpt lat="46.76309" lon="-0.9361">
        <ele>89.5</ele>
      </trkpt>
      <trkpt lat="46.76293" lon="-0.93654">
        <ele>92.8</ele>
      </trkpt>
      <trkpt lat="46.76268" lon="-0.9368">
        <ele>94.5</ele>
      </trkpt>
      <trkpt lat="46.76241" lon="-0.93704">
        <ele>95.1</ele>
      </trkpt>
      <trkpt lat="46.76208" lon="-0.93731">
        <ele>94</ele>
      </trkpt>
      <trkpt lat="46.76173" lon="-0.93755">
        <ele>92.3</ele>
      </trkpt>
      <trkpt lat="46.76146" lon="-0.93768">
        <ele>91.4</ele>
      </trkpt>
      <trkpt lat="46.76134" lon="-0.93785">
        <ele>91.2</ele>
      </trkpt>
      <trkpt lat="46.76116" lon="-0.93816">
        <ele>92.9</ele>
      </trkpt>
      <trkpt lat="46.761" lon="-0.93838">
        <ele>93.2</ele>
      </trkpt>
      <trkpt lat="46.76078" lon="-0.93856">
        <ele>92.3</ele>
      </trkpt>
      <trkpt lat="46.76052" lon="-0.93863">
        <ele>91.6</ele>
      </trkpt>
      <trkpt lat="46.76003" lon="-0.93875">
        <ele>88.1</ele>
      </trkpt>
      <trkpt lat="46.75963" lon="-0.93881">
        <ele>84.4</ele>
      </trkpt>
      <trkpt lat="46.75941" lon="-0.93899">
        <ele>82.7</ele>
      </trkpt>
      <trkpt lat="46.75877" lon="-0.93936">
        <ele>79.9</ele>
      </trkpt>
      <trkpt lat="46.75844" lon="-0.93973">
        <ele>78.4</ele>
      </trkpt>
      <trkpt lat="46.75798" lon="-0.9401">
        <ele>76.9</ele>
      </trkpt>
      <trkpt lat="46.75778" lon="-0.94028">
        <ele>77</ele>
      </trkpt>
      <trkpt lat="46.75749" lon="-0.94036">
        <ele>76.7</ele>
      </trkpt>
      <trkpt lat="46.75698" lon="-0.94048">
        <ele>74.4</ele>
      </trkpt>
      <trkpt lat="46.75657" lon="-0.94057">
        <ele>71.9</ele>
      </trkpt>
      <trkpt lat="46.75631" lon="-0.94065">
        <ele>70.6</ele>
      </trkpt>
      <trkpt lat="46.75616" lon="-0.94073">
        <ele>69.7</ele>
      </trkpt>
      <trkpt lat="46.75601" lon="-0.94086">
        <ele>69</ele>
      </trkpt>
      <trkpt lat="46.75582" lon="-0.9411">
        <ele>70.1</ele>
      </trkpt>
      <trkpt lat="46.75569" lon="-0.94122">
        <ele>70.8</ele>
      </trkpt>
      <trkpt lat="46.75551" lon="-0.94131">
        <ele>71.9</ele>
      </trkpt>
      <trkpt lat="46.75531" lon="-0.94134">
        <ele>73.5</ele>
      </trkpt>
      <trkpt lat="46.75501" lon="-0.94136">
        <ele>76.6</ele>
      </trkpt>
      <trkpt lat="46.75473" lon="-0.94139">
        <ele>79</ele>
      </trkpt>
      <trkpt lat="46.75443" lon="-0.94146">
        <ele>82.8</ele>
      </trkpt>
      <trkpt lat="46.75408" lon="-0.94167">
        <ele>85</ele>
      </trkpt>
      <trkpt lat="46.75379" lon="-0.94185">
        <ele>87.2</ele>
      </trkpt>
      <trkpt lat="46.75337" lon="-0.94216">
        <ele>89.8</ele>
      </trkpt>
      <trkpt lat="46.75306" lon="-0.94235">
        <ele>91.4</ele>
      </trkpt>
      <trkpt lat="46.7527" lon="-0.94246">
        <ele>93.2</ele>
      </trkpt>
      <trkpt lat="46.75207" lon="-0.94271">
        <ele>95.5</ele>
      </trkpt>
      <trkpt lat="46.75154" lon="-0.94293">
        <ele>97.7</ele>
      </trkpt>
      <trkpt lat="46.7509" lon="-0.94323">
        <ele>99.4</ele>
      </trkpt>
      <trkpt lat="46.75033" lon="-0.94346">
        <ele>100.9</ele>
      </trkpt>
      <trkpt lat="46.74974" lon="-0.9437">
        <ele>102</ele>
      </trkpt>
      <trkpt lat="46.7492" lon="-0.94388">
        <ele>102</ele>
      </trkpt>
      <trkpt lat="46.74878" lon="-0.94414">
        <ele>102</ele>
      </trkpt>
      <trkpt lat="46.74823" lon="-0.94453">
        <ele>101.3</ele>
      </trkpt>
      <trkpt lat="46.74765" lon="-0.94516">
        <ele>100.2</ele>
      </trkpt>
      <trkpt lat="46.74704" lon="-0.94575">
        <ele>99</ele>
      </trkpt>
      <trkpt lat="46.7462" lon="-0.94662">
        <ele>98.1</ele>
      </trkpt>
      <trkpt lat="46.74579" lon="-0.94725">
        <ele>98</ele>
      </trkpt>
      <trkpt lat="46.74552" lon="-0.94774">
        <ele>98.1</ele>
        <time>2010-01-01T01:20:01Z</time>
      </trkpt>
      <trkpt lat="46.74536" lon="-0.94766">
        <ele>98.7</ele>
        <time>2010-01-01T01:20:06Z</time>
      </trkpt>
      <trkpt lat="46.74518" lon="-0.94736">
        <ele>100</ele>
        <time>2010-01-01T01:20:09Z</time>
      </trkpt>
      <trkpt lat="46.74485" lon="-0.94669">
        <ele>102.5</ele>
        <time>2010-01-01T01:20:12Z</time>
      </trkpt>
      <trkpt lat="46.74457" lon="-0.94583">
        <ele>104.6</ele>
        <time>2010-01-01T01:20:21Z</time>
      </trkpt>
      <trkpt lat="46.74442" lon="-0.94472">
        <ele>106.1</ele>
        <time>2010-01-01T01:20:28Z</time>
      </trkpt>
      <trkpt lat="46.74435" lon="-0.94393">
        <ele>107</ele>
        <time>2010-01-01T01:20:41Z</time>
      </trkpt>
      <trkpt lat="46.74409" lon="-0.94389">
        <ele>107</ele>
        <time>2010-01-01T01:20:46Z</time>
      </trkpt>
      <trkpt lat="46.74353" lon="-0.94392">
        <ele>108</ele>
        <time>2010-01-01T01:20:55Z</time>
      </trkpt>
      <trkpt lat="46.74264" lon="-0.944">
        <ele>109</ele>
        <time>2010-01-01T01:21:10Z</time>
      </trkpt>
      <trkpt lat="46.74175" lon="-0.94419">
        <ele>111</ele>
        <time>2010-01-01T01:21:25Z</time>
      </trkpt>
      <trkpt lat="46.74137" lon="-0.94436">
        <ele>111</ele>
        <time>2010-01-01T01:21:32Z</time>
      </trkpt>
      <trkpt lat="46.74111" lon="-0.94457">
        <ele>110</ele>
        <time>2010-01-01T01:21:37Z</time>
      </trkpt>
      <trkpt lat="46.7407" lon="-0.94497">
        <ele>110</ele>
        <time>2010-01-01T01:21:45Z</time>
      </trkpt>
      <trkpt lat="46.74" lon="-0.94614">
        <ele>109</ele>
        <time>2010-01-01T01:22:03Z</time>
      </trkpt>
      <trkpt lat="46.7398" lon="-0.94581">
        <ele>108</ele>
        <time>2010-01-01T01:22:08Z</time>
      </trkpt>
      <trkpt lat="46.73906" lon="-0.94485">
        <ele>107</ele>
        <time>2010-01-01T01:22:24Z</time>
      </trkpt>
      <trkpt lat="46.73846" lon="-0.9443">
        <ele>104</ele>
        <time>2010-01-01T01:22:36Z</time>
      </trkpt>
      <trkpt lat="46.73796" lon="-0.94402">
        <ele>102</ele>
        <time>2010-01-01T01:22:45Z</time>
      </trkpt>
      <trkpt lat="46.73711" lon="-0.94382">
        <ele>98</ele>
        <time>2010-01-01T01:22:59Z</time>
      </trkpt>
      <trkpt lat="46.7367" lon="-0.94369">
        <ele>98</ele>
        <time>2010-01-01T01:23:06Z</time>
      </trkpt>
      <trkpt lat="46.73458" lon="-0.94407">
        <ele>93</ele>
        <time>2010-01-01T01:23:42Z</time>
      </trkpt>
      <trkpt lat="46.73374" lon="-0.94429">
        <ele>94</ele>
        <time>2010-01-01T01:23:56Z</time>
      </trkpt>
      <trkpt lat="46.73216" lon="-0.9449">
        <ele>96</ele>
        <time>2010-01-01T01:24:23Z</time>
      </trkpt>
      <trkpt lat="46.73157" lon="-0.945">
        <ele>97</ele>
        <time>2010-01-01T01:24:33Z</time>
      </trkpt>
      <trkpt lat="46.72997" lon="-0.94508">
        <ele>98</ele>
        <time>2010-01-01T01:25:00Z</time>
      </trkpt>
      <trkpt lat="46.72923" lon="-0.94517">
        <ele>100</ele>
        <time>2010-01-01T01:25:12Z</time>
      </trkpt>
      <trkpt lat="46.72878" lon="-0.94529">
        <ele>99</ele>
        <time>2010-01-01T01:25:20Z</time>
      </trkpt>
      <trkpt lat="46.72773" lon="-0.94544">
        <ele>97</ele>
        <time>2010-01-01T01:25:38Z</time>
      </trkpt>
      <trkpt lat="46.72741" lon="-0.94555">
        <ele>96</ele>
        <time>2010-01-01T01:25:43Z</time>
      </trkpt>
      <trkpt lat="46.72454" lon="-0.94754">
        <ele>96</ele>
        <time>2010-01-01T01:26:36Z</time>
      </trkpt>
      <trkpt lat="46.72391" lon="-0.94791">
        <ele>96</ele>
        <time>2010-01-01T01:26:47Z</time>
      </trkpt>
      <trkpt lat="46.72316" lon="-0.94831">
        <ele>97</ele>
        <time>2010-01-01T01:27:01Z</time>
      </trkpt>
      <trkpt lat="46.72183" lon="-0.94873">
        <ele>96</ele>
        <time>2010-01-01T01:27:23Z</time>
      </trkpt>
      <trkpt lat="46.72008" lon="-0.94913">
        <ele>92</ele>
        <time>2010-01-01T01:27:53Z</time>
      </trkpt>
      <trkpt lat="46.71853" lon="-0.94971">
        <ele>91</ele>
        <time>2010-01-01T01:28:20Z</time>
      </trkpt>
      <trkpt lat="46.71779" lon="-0.94994">
        <ele>88</ele>
        <time>2010-01-01T01:28:32Z</time>
      </trkpt>
      <trkpt lat="46.71744" lon="-0.95028">
        <ele>85</ele>
        <time>2010-01-01T01:28:39Z</time>
      </trkpt>
      <trkpt lat="46.71718" lon="-0.95082">
        <ele>82</ele>
        <time>2010-01-01T01:28:47Z</time>
      </trkpt>
      <trkpt lat="46.71681" lon="-0.95163">
        <ele>78</ele>
        <time>2010-01-01T01:28:58Z</time>
      </trkpt>
      <trkpt lat="46.71625" lon="-0.95347">
        <ele>72</ele>
        <time>2010-01-01T01:29:21Z</time>
      </trkpt>
      <trkpt lat="46.71608" lon="-0.95395">
        <ele>70</ele>
        <time>2010-01-01T01:29:27Z</time>
      </trkpt>
      <trkpt lat="46.71592" lon="-0.95426">
        <ele>68</ele>
        <time>2010-01-01T01:29:32Z</time>
      </trkpt>
      <trkpt lat="46.71572" lon="-0.95459">
        <ele>65</ele>
        <time>2010-01-01T01:29:37Z</time>
      </trkpt>
      <trkpt lat="46.71495" lon="-0.95537">
        <ele>60</ele>
        <time>2010-01-01T01:29:52Z</time>
      </trkpt>
      <trkpt lat="46.71472" lon="-0.95557">
        <ele>59</ele>
        <time>2010-01-01T01:29:57Z</time>
      </trkpt>
      <trkpt lat="46.71455" lon="-0.95564">
        <ele>59</ele>
        <time>2010-01-01T01:30:00Z</time>
      </trkpt>
      <trkpt lat="46.7144" lon="-0.95561">
        <ele>58</ele>
        <time>2010-01-01T01:30:02Z</time>
      </trkpt>
      <trkpt lat="46.71428" lon="-0.95556">
        <ele>58</ele>
        <time>2010-01-01T01:30:04Z</time>
      </trkpt>
      <trkpt lat="46.71361" lon="-0.95503">
        <ele>55</ele>
        <time>2010-01-01T01:30:17Z</time>
      </trkpt>
      <trkpt lat="46.71323" lon="-0.95483">
        <ele>53</ele>
        <time>2010-01-01T01:30:24Z</time>
      </trkpt>
      <trkpt lat="46.71286" lon="-0.9547">
        <ele>53</ele>
        <time>2010-01-01T01:30:30Z</time>
      </trkpt>
      <trkpt lat="46.71266" lon="-0.95469">
        <ele>53</ele>
        <time>2010-01-01T01:30:33Z</time>
      </trkpt>
      <trkpt lat="46.7125" lon="-0.95473">
        <ele>53</ele>
        <time>2010-01-01T01:30:36Z</time>
      </trkpt>
      <trkpt lat="46.71205" lon="-0.95495">
        <ele>55</ele>
        <time>2010-01-01T01:30:44Z</time>
      </trkpt>
      <trkpt lat="46.71192" lon="-0.9551">
        <ele>57</ele>
        <time>2010-01-01T01:30:47Z</time>
      </trkpt>
      <trkpt lat="46.71184" lon="-0.95523">
        <ele>58</ele>
        <time>2010-01-01T01:30:49Z</time>
      </trkpt>
      <trkpt lat="46.71178" lon="-0.95542">
        <ele>60</ele>
        <time>2010-01-01T01:30:51Z</time>
      </trkpt>
      <trkpt lat="46.71153" lon="-0.95749">
        <ele>65</ele>
        <time>2010-01-01T01:31:15Z</time>
      </trkpt>
      <trkpt lat="46.71146" lon="-0.95779">
        <ele>66</ele>
        <time>2010-01-01T01:31:19Z</time>
      </trkpt>
      <trkpt lat="46.71125" lon="-0.95834">
        <ele>68</ele>
        <time>2010-01-01T01:31:26Z</time>
      </trkpt>
      <trkpt lat="46.7112" lon="-0.95856">
        <ele>69</ele>
        <time>2010-01-01T01:31:29Z</time>
      </trkpt>
      <trkpt lat="46.7112" lon="-0.95885">
        <ele>70</ele>
        <time>2010-01-01T01:31:32Z</time>
      </trkpt>
      <trkpt lat="46.71124" lon="-0.95909">
        <ele>71</ele>
        <time>2010-01-01T01:31:35Z</time>
      </trkpt>
      <trkpt lat="46.7114" lon="-0.95964">
        <ele>73</ele>
        <time>2010-01-01T01:31:42Z</time>
      </trkpt>
      <trkpt lat="46.71168" lon="-0.96017">
        <ele>77</ele>
        <time>2010-01-01T01:31:49Z</time>
      </trkpt>
      <trkpt lat="46.7119" lon="-0.96035">
        <ele>77</ele>
        <time>2010-01-01T01:31:54Z</time>
      </trkpt>
      <trkpt lat="46.71242" lon="-0.96082">
        <ele>81</ele>
        <time>2010-01-01T01:32:04Z</time>
      </trkpt>
      <trkpt lat="46.71258" lon="-0.96106">
        <ele>81</ele>
        <time>2010-01-01T01:32:08Z</time>
      </trkpt>
      <trkpt lat="46.71283" lon="-0.96158">
        <ele>81</ele>
        <time>2010-01-01T01:32:15Z</time>
      </trkpt>
      <trkpt lat="46.71321" lon="-0.96229">
        <ele>83</ele>
        <time>2010-01-01T01:32:25Z</time>
      </trkpt>
      <trkpt lat="46.71388" lon="-0.96333">
        <ele>86</ele>
        <time>2010-01-01T01:32:41Z</time>
      </trkpt>
      <trkpt lat="46.71439" lon="-0.96406">
        <ele>87</ele>
        <time>2010-01-01T01:32:53Z</time>
      </trkpt>
      <trkpt lat="46.71442" lon="-0.96418">
        <ele>88</ele>
        <time>2010-01-01T01:32:55Z</time>
      </trkpt>
      <trkpt lat="46.7144" lon="-0.96431">
        <ele>88</ele>
        <time>2010-01-01T01:32:56Z</time>
      </trkpt>
      <trkpt lat="46.71425" lon="-0.96465">
        <ele>87</ele>
        <time>2010-01-01T01:33:01Z</time>
      </trkpt>
      <trkpt lat="46.71404" lon="-0.96501">
        <ele>86</ele>
        <time>2010-01-01T01:33:06Z</time>
      </trkpt>
      <trkpt lat="46.7139" lon="-0.9654">
        <ele>86</ele>
        <time>2010-01-01T01:33:11Z</time>
      </trkpt>
      <trkpt lat="46.71384" lon="-0.96572">
        <ele>86</ele>
        <time>2010-01-01T01:33:15Z</time>
      </trkpt>
      <trkpt lat="46.71386" lon="-0.96613">
        <ele>86</ele>
        <time>2010-01-01T01:33:20Z</time>
      </trkpt>
      <trkpt lat="46.71402" lon="-0.96729">
        <ele>85</ele>
        <time>2010-01-01T01:33:33Z</time>
      </trkpt>
      <trkpt lat="46.71415" lon="-0.96965">
        <ele>84</ele>
        <time>2010-01-01T01:34:01Z</time>
      </trkpt>
      <trkpt lat="46.71411" lon="-0.97033">
        <ele>82</ele>
        <time>2010-01-01T01:34:08Z</time>
      </trkpt>
      <trkpt lat="46.71413" lon="-0.97076">
        <ele>81</ele>
        <time>2010-01-01T01:34:13Z</time>
      </trkpt>
      <trkpt lat="46.71419" lon="-0.97094">
        <ele>81</ele>
        <time>2010-01-01T01:34:16Z</time>
      </trkpt>
      <trkpt lat="46.7144" lon="-0.9714">
        <ele>79</ele>
        <time>2010-01-01T01:34:22Z</time>
      </trkpt>
      <trkpt lat="46.71444" lon="-0.9716">
        <ele>79</ele>
        <time>2010-01-01T01:34:24Z</time>
      </trkpt>
      <trkpt lat="46.71442" lon="-0.9719">
        <ele>78</ele>
        <time>2010-01-01T01:34:28Z</time>
      </trkpt>
      <trkpt lat="46.71428" lon="-0.97221">
        <ele>76</ele>
        <time>2010-01-01T01:34:32Z</time>
      </trkpt>
      <trkpt lat="46.7141" lon="-0.97244">
        <ele>75</ele>
        <time>2010-01-01T01:34:36Z</time>
      </trkpt>
      <trkpt lat="46.71377" lon="-0.9727">
        <ele>75</ele>
        <time>2010-01-01T01:34:42Z</time>
      </trkpt>
      <trkpt lat="46.71329" lon="-0.97295">
        <ele>74</ele>
        <time>2010-01-01T01:34:51Z</time>
      </trkpt>
      <trkpt lat="46.71317" lon="-0.9731">
        <ele>73</ele>
        <time>2010-01-01T01:34:53Z</time>
      </trkpt>
      <trkpt lat="46.71279" lon="-0.97402">
        <ele>75</ele>
        <time>2010-01-01T01:35:06Z</time>
      </trkpt>
      <trkpt lat="46.71262" lon="-0.9742">
        <ele>75</ele>
        <time>2010-01-01T01:35:09Z</time>
      </trkpt>
      <trkpt lat="46.71236" lon="-0.97437">
        <ele>75</ele>
        <time>2010-01-01T01:35:14Z</time>
      </trkpt>
      <trkpt lat="46.71226" lon="-0.97446">
        <ele>75</ele>
        <time>2010-01-01T01:35:16Z</time>
      </trkpt>
      <trkpt lat="46.71215" lon="-0.97468">
        <ele>76</ele>
        <time>2010-01-01T01:35:19Z</time>
      </trkpt>
      <trkpt lat="46.71183" lon="-0.97538">
        <ele>77</ele>
        <time>2010-01-01T01:35:29Z</time>
      </trkpt>
      <trkpt lat="46.71149" lon="-0.976">
        <ele>79</ele>
        <time>2010-01-01T01:35:38Z</time>
      </trkpt>
      <trkpt lat="46.71121" lon="-0.97656">
        <ele>80</ele>
        <time>2010-01-01T01:35:46Z</time>
      </trkpt>
      <trkpt lat="46.71098" lon="-0.97724">
        <ele>82</ele>
        <time>2010-01-01T01:35:54Z</time>
      </trkpt>
      <trkpt lat="46.71098" lon="-0.97725">
        <ele>82</ele>
        <time>2010-01-01T01:35:54Z</time>
      </trkpt>
      <trkpt lat="46.71031" lon="-0.97919">
        <ele>85</ele>
        <time>2010-01-01T01:36:19Z</time>
      </trkpt>
      <trkpt lat="46.7102" lon="-0.97961">
        <ele>86</ele>
        <time>2010-01-01T01:36:24Z</time>
      </trkpt>
      <trkpt lat="46.71013" lon="-0.98029">
        <ele>89</ele>
        <time>2010-01-01T01:36:32Z</time>
      </trkpt>
      <trkpt lat="46.71009" lon="-0.98047">
        <ele>90</ele>
        <time>2010-01-01T01:36:34Z</time>
      </trkpt>
      <trkpt lat="46.70992" lon="-0.98096">
        <ele>92</ele>
        <time>2010-01-01T01:36:41Z</time>
      </trkpt>
      <trkpt lat="46.70979" lon="-0.98129">
        <ele>93</ele>
        <time>2010-01-01T01:36:45Z</time>
      </trkpt>
      <trkpt lat="46.70978" lon="-0.98149">
        <ele>93</ele>
        <time>2010-01-01T01:36:47Z</time>
      </trkpt>
      <trkpt lat="46.70992" lon="-0.98189">
        <ele>93</ele>
        <time>2010-01-01T01:36:52Z</time>
      </trkpt>
      <trkpt lat="46.7099" lon="-0.98208">
        <ele>93</ele>
        <time>2010-01-01T01:36:55Z</time>
      </trkpt>
      <trkpt lat="46.7098" lon="-0.98244">
        <ele>93</ele>
        <time>2010-01-01T01:36:59Z</time>
      </trkpt>
      <trkpt lat="46.7096" lon="-0.9829">
        <ele>93</ele>
        <time>2010-01-01T01:37:05Z</time>
      </trkpt>
      <trkpt lat="46.7095" lon="-0.98309">
        <ele>93</ele>
        <time>2010-01-01T01:37:08Z</time>
      </trkpt>
      <trkpt lat="46.70941" lon="-0.9832">
        <ele>93</ele>
        <time>2010-01-01T01:37:10Z</time>
      </trkpt>
      <trkpt lat="46.70906" lon="-0.98336">
        <ele>93</ele>
        <time>2010-01-01T01:37:16Z</time>
      </trkpt>
      <trkpt lat="46.70884" lon="-0.98357">
        <ele>93</ele>
        <time>2010-01-01T01:37:21Z</time>
      </trkpt>
      <trkpt lat="46.70874" lon="-0.98369">
        <ele>93</ele>
        <time>2010-01-01T01:37:23Z</time>
      </trkpt>
      <trkpt lat="46.70872" lon="-0.9838">
        <ele>93</ele>
        <time>2010-01-01T01:37:24Z</time>
      </trkpt>
      <trkpt lat="46.70875" lon="-0.984">
        <ele>92</ele>
        <time>2010-01-01T01:37:26Z</time>
      </trkpt>
      <trkpt lat="46.70873" lon="-0.98428">
        <ele>91</ele>
        <time>2010-01-01T01:37:30Z</time>
      </trkpt>
      <trkpt lat="46.70866" lon="-0.98443">
        <ele>91</ele>
        <time>2010-01-01T01:37:32Z</time>
      </trkpt>
      <trkpt lat="46.70826" lon="-0.98487">
        <ele>92</ele>
        <time>2010-01-01T01:37:40Z</time>
      </trkpt>
      <trkpt lat="46.70808" lon="-0.98539">
        <ele>91</ele>
        <time>2010-01-01T01:37:47Z</time>
      </trkpt>
      <trkpt lat="46.70798" lon="-0.98563">
        <ele>91</ele>
        <time>2010-01-01T01:37:50Z</time>
      </trkpt>
      <trkpt lat="46.7075" lon="-0.9863">
        <ele>91</ele>
        <time>2010-01-01T01:38:01Z</time>
      </trkpt>
      <trkpt lat="46.70736" lon="-0.98643">
        <ele>91</ele>
        <time>2010-01-01T01:38:04Z</time>
      </trkpt>
      <trkpt lat="46.70717" lon="-0.98654">
        <ele>90</ele>
        <time>2010-01-01T01:38:07Z</time>
      </trkpt>
      <trkpt lat="46.70711" lon="-0.98665">
        <ele>90</ele>
        <time>2010-01-01T01:38:09Z</time>
      </trkpt>
      <trkpt lat="46.70706" lon="-0.98687">
        <ele>89</ele>
        <time>2010-01-01T01:38:11Z</time>
      </trkpt>
      <trkpt lat="46.70704" lon="-0.98725">
        <ele>87</ele>
        <time>2010-01-01T01:38:16Z</time>
      </trkpt>
      <trkpt lat="46.70632" lon="-0.98753">
        <ele>87</ele>
        <time>2010-01-01T01:38:28Z</time>
      </trkpt>
      <trkpt lat="46.70635" lon="-0.9877">
        <ele>86</ele>
        <time>2010-01-01T01:38:30Z</time>
      </trkpt>
      <trkpt lat="46.70633" lon="-0.98826">
        <ele>83</ele>
        <time>2010-01-01T01:38:37Z</time>
      </trkpt>
      <trkpt lat="46.70618" lon="-0.99062">
        <ele>77</ele>
        <time>2010-01-01T01:39:04Z</time>
      </trkpt>
      <trkpt lat="46.70617" lon="-0.9913">
        <ele>76</ele>
        <time>2010-01-01T01:39:11Z</time>
      </trkpt>
      <trkpt lat="46.70627" lon="-0.99187">
        <ele>75</ele>
        <time>2010-01-01T01:39:18Z</time>
      </trkpt>
      <trkpt lat="46.70652" lon="-0.99241">
        <ele>76</ele>
        <time>2010-01-01T01:39:26Z</time>
      </trkpt>
      <trkpt lat="46.70752" lon="-0.99412">
        <ele>73</ele>
        <time>2010-01-01T01:39:51Z</time>
      </trkpt>
      <trkpt lat="46.70771" lon="-0.9947">
        <ele>72</ele>
        <time>2010-01-01T01:39:59Z</time>
      </trkpt>
      <trkpt lat="46.70778" lon="-0.99537">
        <ele>70</ele>
        <time>2010-01-01T01:40:06Z</time>
      </trkpt>
      <trkpt lat="46.70771" lon="-0.99658">
        <ele>65</ele>
        <time>2010-01-01T01:40:20Z</time>
      </trkpt>
      <trkpt lat="46.70793" lon="-0.99877">
        <ele>66</ele>
        <time>2010-01-01T01:40:46Z</time>
      </trkpt>
      <trkpt lat="46.7083" lon="-1.00057">
        <ele>68</ele>
        <time>2010-01-01T01:41:07Z</time>
      </trkpt>
      <trkpt lat="46.70836" lon="-1.00109">
        <ele>69</ele>
        <time>2010-01-01T01:41:13Z</time>
      </trkpt>
      <trkpt lat="46.70864" lon="-1.00338">
        <ele>70</ele>
        <time>2010-01-01T01:41:40Z</time>
      </trkpt>
      <trkpt lat="46.70902" lon="-1.00483">
        <ele>71</ele>
        <time>2010-01-01T01:41:58Z</time>
      </trkpt>
      <trkpt lat="46.70931" lon="-1.00624">
        <ele>72</ele>
        <time>2010-01-01T01:42:14Z</time>
      </trkpt>
      <trkpt lat="46.70947" lon="-1.00679">
        <ele>72</ele>
        <time>2010-01-01T01:42:21Z</time>
      </trkpt>
      <trkpt lat="46.70971" lon="-1.00703">
        <ele>72</ele>
        <time>2010-01-01T01:42:26Z</time>
      </trkpt>
      <trkpt lat="46.71249" lon="-1.00887">
        <ele>71</ele>
        <time>2010-01-01T01:43:17Z</time>
      </trkpt>
      <trkpt lat="46.71279" lon="-1.00924">
        <ele>72</ele>
        <time>2010-01-01T01:43:24Z</time>
      </trkpt>
      <trkpt lat="46.71318" lon="-1.01002">
        <ele>73</ele>
        <time>2010-01-01T01:43:35Z</time>
      </trkpt>
      <trkpt lat="46.71349" lon="-1.01075">
        <ele>72</ele>
        <time>2010-01-01T01:43:44Z</time>
      </trkpt>
      <trkpt lat="46.714" lon="-1.01229">
        <ele>71</ele>
        <time>2010-01-01T01:44:04Z</time>
      </trkpt>
      <trkpt lat="46.71565" lon="-1.01638">
        <ele>68</ele>
        <time>2010-01-01T01:44:58Z</time>
      </trkpt>
      <trkpt lat="46.71606" lon="-1.0167">
        <ele>67</ele>
        <time>2010-01-01T01:45:06Z</time>
      </trkpt>
      <trkpt lat="46.71669" lon="-1.01708">
        <ele>65</ele>
        <time>2010-01-01T01:45:17Z</time>
      </trkpt>
      <trkpt lat="46.71667" lon="-1.0172">
        <ele>65</ele>
        <time>2010-01-01T01:45:19Z</time>
      </trkpt>
      <trkpt lat="46.71668" lon="-1.01733">
        <ele>65</ele>
        <time>2010-01-01T01:45:20Z</time>
      </trkpt>
      <trkpt lat="46.71674" lon="-1.01745">
        <ele>65</ele>
        <time>2010-01-01T01:45:22Z</time>
      </trkpt>
      <trkpt lat="46.71684" lon="-1.01751">
        <ele>64</ele>
        <time>2010-01-01T01:45:24Z</time>
      </trkpt>
      <trkpt lat="46.71691" lon="-1.0175">
        <ele>64</ele>
        <time>2010-01-01T01:45:25Z</time>
      </trkpt>
      <trkpt lat="46.71698" lon="-1.01745">
        <ele>64</ele>
        <time>2010-01-01T01:45:26Z</time>
      </trkpt>
      <trkpt lat="46.71702" lon="-1.01738">
        <ele>64</ele>
        <time>2010-01-01T01:45:27Z</time>
      </trkpt>
      <trkpt lat="46.71791" lon="-1.01779">
        <ele>62</ele>
        <time>2010-01-01T01:45:43Z</time>
      </trkpt>
      <trkpt lat="46.71978" lon="-1.01894">
        <ele>68</ele>
        <time>2010-01-01T01:46:17Z</time>
      </trkpt>
      <trkpt lat="46.7199" lon="-1.01913">
        <ele>69</ele>
        <time>2010-01-01T01:46:20Z</time>
      </trkpt>
      <trkpt lat="46.72032" lon="-1.02071">
        <ele>72</ele>
        <time>2010-01-01T01:46:39Z</time>
      </trkpt>
      <trkpt lat="46.72043" lon="-1.02108">
        <ele>73</ele>
        <time>2010-01-01T01:46:44Z</time>
      </trkpt>
      <trkpt lat="46.72051" lon="-1.02122">
        <ele>73</ele>
        <time>2010-01-01T01:46:46Z</time>
      </trkpt>
      <trkpt lat="46.72099" lon="-1.02206">
        <ele>75</ele>
        <time>2010-01-01T01:46:58Z</time>
      </trkpt>
      <trkpt lat="46.72155" lon="-1.02291">
        <ele>78</ele>
        <time>2010-01-01T01:47:12Z</time>
      </trkpt>
      <trkpt lat="46.72163" lon="-1.02306">
        <ele>79</ele>
        <time>2010-01-01T01:47:14Z</time>
      </trkpt>
      <trkpt lat="46.72225" lon="-1.02396">
        <ele>81</ele>
        <time>2010-01-01T01:47:28Z</time>
      </trkpt>
      <trkpt lat="46.72238" lon="-1.02419">
        <ele>81</ele>
        <time>2010-01-01T01:47:32Z</time>
      </trkpt>
      <trkpt lat="46.72304" lon="-1.02576">
        <ele>83</ele>
        <time>2010-01-01T01:47:53Z</time>
      </trkpt>
      <trkpt lat="46.72322" lon="-1.02628">
        <ele>83</ele>
        <time>2010-01-01T01:48:00Z</time>
      </trkpt>
      <trkpt lat="46.72345" lon="-1.02736">
        <ele>84</ele>
        <time>2010-01-01T01:48:13Z</time>
      </trkpt>
      <trkpt lat="46.72356" lon="-1.02819">
        <ele>85</ele>
        <time>2010-01-01T01:48:22Z</time>
      </trkpt>
      <trkpt lat="46.72367" lon="-1.02867">
        <ele>84</ele>
        <time>2010-01-01T01:48:28Z</time>
      </trkpt>
      <trkpt lat="46.7236" lon="-1.02873">
        <ele>84</ele>
        <time>2010-01-01T01:48:29Z</time>
      </trkpt>
      <trkpt lat="46.72357" lon="-1.02883">
        <ele>84</ele>
        <time>2010-01-01T01:48:31Z</time>
      </trkpt>
      <trkpt lat="46.72359" lon="-1.02894">
        <ele>83</ele>
        <time>2010-01-01T01:48:32Z</time>
      </trkpt>
      <trkpt lat="46.72365" lon="-1.02901">
        <ele>83</ele>
        <time>2010-01-01T01:48:33Z</time>
      </trkpt>
      <trkpt lat="46.7237" lon="-1.02902">
        <ele>83</ele>
        <time>2010-01-01T01:48:34Z</time>
      </trkpt>
      <trkpt lat="46.72378" lon="-1.02949">
        <ele>82</ele>
        <time>2010-01-01T01:48:40Z</time>
      </trkpt>
      <trkpt lat="46.72394" lon="-1.03001">
        <ele>82</ele>
        <time>2010-01-01T01:48:46Z</time>
      </trkpt>
      <trkpt lat="46.72448" lon="-1.03156">
        <ele>83</ele>
        <time>2010-01-01T01:49:06Z</time>
      </trkpt>
      <trkpt lat="46.72495" lon="-1.03282">
        <ele>83</ele>
        <time>2010-01-01T01:49:22Z</time>
      </trkpt>
      <trkpt lat="46.72517" lon="-1.03354">
        <ele>82</ele>
        <time>2010-01-01T01:49:31Z</time>
      </trkpt>
      <trkpt lat="46.72651" lon="-1.03855">
        <ele>78</ele>
        <time>2010-01-01T01:50:33Z</time>
      </trkpt>
      <trkpt lat="46.72681" lon="-1.03989">
        <ele>77</ele>
        <time>2010-01-01T01:50:49Z</time>
      </trkpt>
      <trkpt lat="46.72696" lon="-1.04047">
        <ele>78</ele>
        <time>2010-01-01T01:50:56Z</time>
      </trkpt>
      <trkpt lat="46.72769" lon="-1.04248">
        <ele>80</ele>
        <time>2010-01-01T01:51:22Z</time>
      </trkpt>
      <trkpt lat="46.72802" lon="-1.04305">
        <ele>82</ele>
        <time>2010-01-01T01:51:31Z</time>
      </trkpt>
      <trkpt lat="46.72842" lon="-1.04353">
        <ele>83</ele>
        <time>2010-01-01T01:51:39Z</time>
      </trkpt>
      <trkpt lat="46.72887" lon="-1.04391">
        <ele>82</ele>
        <time>2010-01-01T01:51:48Z</time>
      </trkpt>
      <trkpt lat="46.72982" lon="-1.04423">
        <ele>81</ele>
        <time>2010-01-01T01:52:04Z</time>
      </trkpt>
      <trkpt lat="46.73021" lon="-1.04459">
        <ele>80</ele>
        <time>2010-01-01T01:52:12Z</time>
      </trkpt>
      <trkpt lat="46.73046" lon="-1.04493">
        <ele>80</ele>
        <time>2010-01-01T01:52:18Z</time>
      </trkpt>
      <trkpt lat="46.73076" lon="-1.04562">
        <ele>79</ele>
        <time>2010-01-01T01:52:27Z</time>
      </trkpt>
      <trkpt lat="46.73096" lon="-1.04612">
        <ele>78</ele>
        <time>2010-01-01T01:52:34Z</time>
      </trkpt>
      <trkpt lat="46.7313" lon="-1.04595">
        <ele>79</ele>
        <time>2010-01-01T01:52:39Z</time>
      </trkpt>
      <trkpt lat="46.73191" lon="-1.0457">
        <ele>80</ele>
        <time>2010-01-01T01:52:50Z</time>
      </trkpt>
      <trkpt lat="46.7329" lon="-1.04568">
        <ele>77</ele>
        <time>2010-01-01T01:53:07Z</time>
      </trkpt>
      <trkpt lat="46.73339" lon="-1.04562">
        <ele>77</ele>
        <time>2010-01-01T01:53:15Z</time>
      </trkpt>
      <trkpt lat="46.73365" lon="-1.04575">
        <ele>76</ele>
        <time>2010-01-01T01:53:19Z</time>
      </trkpt>
      <trkpt lat="46.73416" lon="-1.04608">
        <ele>75</ele>
        <time>2010-01-01T01:53:29Z</time>
      </trkpt>
      <trkpt lat="46.73503" lon="-1.04655">
        <ele>74</ele>
        <time>2010-01-01T01:53:44Z</time>
      </trkpt>
      <trkpt lat="46.73528" lon="-1.04655">
        <ele>73</ele>
        <time>2010-01-01T01:53:48Z</time>
      </trkpt>
      <trkpt lat="46.73569" lon="-1.04641">
        <ele>72</ele>
        <time>2010-01-01T01:53:55Z</time>
      </trkpt>
      <trkpt lat="46.73599" lon="-1.04633">
        <ele>70</ele>
        <time>2010-01-01T01:54:00Z</time>
      </trkpt>
      <trkpt lat="46.7363" lon="-1.04634">
        <ele>69</ele>
        <time>2010-01-01T01:54:06Z</time>
      </trkpt>
      <trkpt lat="46.73707" lon="-1.04642">
        <ele>66</ele>
        <time>2010-01-01T01:54:18Z</time>
      </trkpt>
      <trkpt lat="46.73798" lon="-1.04628">
        <ele>65</ele>
        <time>2010-01-01T01:54:34Z</time>
      </trkpt>
      <trkpt lat="46.73838" lon="-1.04626">
        <ele>66</ele>
        <time>2010-01-01T01:54:40Z</time>
      </trkpt>
      <trkpt lat="46.73909" lon="-1.04633">
        <ele>69</ele>
        <time>2010-01-01T01:54:52Z</time>
      </trkpt>
      <trkpt lat="46.73968" lon="-1.0463">
        <ele>71</ele>
        <time>2010-01-01T01:55:02Z</time>
      </trkpt>
      <trkpt lat="46.74029" lon="-1.04624">
        <ele>73</ele>
        <time>2010-01-01T01:55:12Z</time>
      </trkpt>
      <trkpt lat="46.74081" lon="-1.04602">
        <ele>74</ele>
        <time>2010-01-01T01:55:21Z</time>
      </trkpt>
      <trkpt lat="46.74129" lon="-1.0458">
        <ele>76</ele>
        <time>2010-01-01T01:55:30Z</time>
      </trkpt>
      <trkpt lat="46.74176" lon="-1.04565">
        <ele>78</ele>
        <time>2010-01-01T01:55:38Z</time>
      </trkpt>
      <trkpt lat="46.74367" lon="-1.04546">
        <ele>79</ele>
        <time>2010-01-01T01:56:10Z</time>
      </trkpt>
      <trkpt lat="46.74366" lon="-1.04546">
        <ele>79</ele>
        <time>2010-01-01T01:56:10Z</time>
      </trkpt>
      <trkpt lat="46.74436" lon="-1.04541">
        <ele>79</ele>
        <time>2010-01-01T01:56:22Z</time>
      </trkpt>
      <trkpt lat="46.74467" lon="-1.04551">
        <ele>79</ele>
        <time>2010-01-01T01:56:27Z</time>
      </trkpt>
      <trkpt lat="46.74491" lon="-1.04544">
        <ele>80</ele>
        <time>2010-01-01T01:56:31Z</time>
      </trkpt>
      <trkpt lat="46.74511" lon="-1.04529">
        <ele>80</ele>
        <time>2010-01-01T01:56:35Z</time>
      </trkpt>
      <trkpt lat="46.74533" lon="-1.04509">
        <ele>80</ele>
        <time>2010-01-01T01:56:39Z</time>
      </trkpt>
      <trkpt lat="46.74545" lon="-1.04502">
        <ele>81</ele>
        <time>2010-01-01T01:56:41Z</time>
      </trkpt>
      <trkpt lat="46.74554" lon="-1.04501">
        <ele>81</ele>
        <time>2010-01-01T01:56:43Z</time>
      </trkpt>
      <trkpt lat="46.74577" lon="-1.04506">
        <ele>81</ele>
        <time>2010-01-01T01:56:47Z</time>
      </trkpt>
      <trkpt lat="46.74619" lon="-1.04526">
        <ele>80</ele>
        <time>2010-01-01T01:56:54Z</time>
      </trkpt>
      <trkpt lat="46.7465" lon="-1.04528">
        <ele>79</ele>
        <time>2010-01-01T01:56:59Z</time>
      </trkpt>
      <trkpt lat="46.74682" lon="-1.04517">
        <ele>78</ele>
        <time>2010-01-01T01:57:05Z</time>
      </trkpt>
      <trkpt lat="46.74798" lon="-1.04463">
        <ele>76</ele>
        <time>2010-01-01T01:57:25Z</time>
      </trkpt>
      <trkpt lat="46.74939" lon="-1.04393">
        <ele>82</ele>
        <time>2010-01-01T01:57:50Z</time>
      </trkpt>
      <trkpt lat="46.74961" lon="-1.04393">
        <ele>83</ele>
        <time>2010-01-01T01:57:53Z</time>
      </trkpt>
      <trkpt lat="46.74977" lon="-1.04405">
        <ele>84</ele>
        <time>2010-01-01T01:57:56Z</time>
      </trkpt>
      <trkpt lat="46.75107" lon="-1.04573">
        <ele>85</ele>
        <time>2010-01-01T01:58:25Z</time>
      </trkpt>
      <trkpt lat="46.75141" lon="-1.04603">
        <ele>84</ele>
        <time>2010-01-01T01:58:32Z</time>
      </trkpt>
      <trkpt lat="46.75193" lon="-1.04614">
        <ele>83</ele>
        <time>2010-01-01T01:58:41Z</time>
      </trkpt>
      <trkpt lat="46.75241" lon="-1.04619">
        <ele>81</ele>
        <time>2010-01-01T01:58:49Z</time>
      </trkpt>
      <trkpt lat="46.75295" lon="-1.04617">
        <ele>78</ele>
        <time>2010-01-01T01:58:58Z</time>
      </trkpt>
      <trkpt lat="46.75319" lon="-1.04618">
        <ele>77</ele>
        <time>2010-01-01T01:59:02Z</time>
      </trkpt>
      <trkpt lat="46.7537" lon="-1.04661">
        <ele>74</ele>
        <time>2010-01-01T01:59:12Z</time>
      </trkpt>
      <trkpt lat="46.75386" lon="-1.04669">
        <ele>73</ele>
        <time>2010-01-01T01:59:14Z</time>
      </trkpt>
      <trkpt lat="46.75405" lon="-1.04662">
        <ele>72</ele>
        <time>2010-01-01T01:59:18Z</time>
      </trkpt>
      <trkpt lat="46.75439" lon="-1.04633">
        <ele>70</ele>
        <time>2010-01-01T01:59:24Z</time>
      </trkpt>
      <trkpt lat="46.7549" lon="-1.04605">
        <ele>69</ele>
        <time>2010-01-01T01:59:33Z</time>
      </trkpt>
      <trkpt lat="46.75606" lon="-1.04551">
        <ele>76</ele>
        <time>2010-01-01T01:59:54Z</time>
      </trkpt>
      <trkpt lat="46.75698" lon="-1.04495">
        <ele>83</ele>
        <time>2010-01-01T02:00:10Z</time>
      </trkpt>
      <trkpt lat="46.75741" lon="-1.04485">
        <ele>84</ele>
        <time>2010-01-01T02:00:18Z</time>
      </trkpt>
      <trkpt lat="46.75797" lon="-1.04484">
        <ele>86</ele>
        <time>2010-01-01T02:00:27Z</time>
      </trkpt>
      <trkpt lat="46.75946" lon="-1.04486">
        <ele>91</ele>
        <time>2010-01-01T02:00:52Z</time>
      </trkpt>
      <trkpt lat="46.76048" lon="-1.04491">
        <ele>92</ele>
        <time>2010-01-01T02:01:09Z</time>
      </trkpt>
      <trkpt lat="46.76079" lon="-1.04496">
        <ele>91</ele>
        <time>2010-01-01T02:01:14Z</time>
      </trkpt>
      <trkpt lat="46.76105" lon="-1.04514">
        <ele>91</ele>
        <time>2010-01-01T02:01:19Z</time>
      </trkpt>
      <trkpt lat="46.76141" lon="-1.04584">
        <ele>90</ele>
        <time>2010-01-01T02:01:29Z</time>
      </trkpt>
      <trkpt lat="46.7619" lon="-1.0464">
        <ele>88</ele>
        <time>2010-01-01T02:01:39Z</time>
      </trkpt>
      <trkpt lat="46.76232" lon="-1.04674">
        <ele>86</ele>
        <time>2010-01-01T02:01:47Z</time>
      </trkpt>
      <trkpt lat="46.76252" lon="-1.04683">
        <ele>86</ele>
        <time>2010-01-01T02:01:51Z</time>
      </trkpt>
      <trkpt lat="46.7634" lon="-1.04711">
        <ele>83</ele>
        <time>2010-01-01T02:02:06Z</time>
      </trkpt>
      <trkpt lat="46.7641" lon="-1.04739">
        <ele>77</ele>
        <time>2010-01-01T02:02:18Z</time>
      </trkpt>
      <trkpt lat="46.76438" lon="-1.04761">
        <ele>75</ele>
        <time>2010-01-01T02:02:23Z</time>
      </trkpt>
      <trkpt lat="46.76462" lon="-1.04788">
        <ele>73</ele>
        <time>2010-01-01T02:02:28Z</time>
      </trkpt>
      <trkpt lat="46.76486" lon="-1.04823">
        <ele>71</ele>
        <time>2010-01-01T02:02:34Z</time>
      </trkpt>
      <trkpt lat="46.76498" lon="-1.04856">
        <ele>70</ele>
        <time>2010-01-01T02:02:38Z</time>
      </trkpt>
      <trkpt lat="46.76509" lon="-1.04934">
        <ele>71</ele>
        <time>2010-01-01T02:02:47Z</time>
      </trkpt>
      <trkpt lat="46.76525" lon="-1.05017">
        <ele>70</ele>
        <time>2010-01-01T02:02:57Z</time>
      </trkpt>
      <trkpt lat="46.76547" lon="-1.05066">
        <ele>68</ele>
        <time>2010-01-01T02:03:04Z</time>
      </trkpt>
      <trkpt lat="46.76582" lon="-1.05091">
        <ele>67</ele>
        <time>2010-01-01T02:03:10Z</time>
      </trkpt>
      <trkpt lat="46.76619" lon="-1.05098">
        <ele>68</ele>
        <time>2010-01-01T02:03:16Z</time>
      </trkpt>
      <trkpt lat="46.76657" lon="-1.05098">
        <ele>68</ele>
        <time>2010-01-01T02:03:23Z</time>
      </trkpt>
      <trkpt lat="46.76681" lon="-1.05111">
        <ele>70</ele>
        <time>2010-01-01T02:03:27Z</time>
      </trkpt>
      <trkpt lat="46.76714" lon="-1.05147">
        <ele>73</ele>
        <time>2010-01-01T02:03:34Z</time>
      </trkpt>
      <trkpt lat="46.76763" lon="-1.05206">
        <ele>76</ele>
        <time>2010-01-01T02:03:45Z</time>
      </trkpt>
      <trkpt lat="46.76808" lon="-1.05256">
        <ele>78</ele>
        <time>2010-01-01T02:03:54Z</time>
      </trkpt>
      <trkpt lat="46.7683" lon="-1.05268">
        <ele>80</ele>
        <time>2010-01-01T02:03:58Z</time>
      </trkpt>
      <trkpt lat="46.7686" lon="-1.05278">
        <ele>80</ele>
        <time>2010-01-01T02:04:03Z</time>
      </trkpt>
      <trkpt lat="46.76872" lon="-1.05289">
        <ele>80</ele>
        <time>2010-01-01T02:04:05Z</time>
      </trkpt>
      <trkpt lat="46.76897" lon="-1.05342">
        <ele>80</ele>
        <time>2010-01-01T02:04:13Z</time>
      </trkpt>
      <trkpt lat="46.76925" lon="-1.05423">
        <ele>78</ele>
        <time>2010-01-01T02:04:23Z</time>
      </trkpt>
      <trkpt lat="46.76961" lon="-1.05478">
        <ele>75</ele>
        <time>2010-01-01T02:04:32Z</time>
      </trkpt>
      <trkpt lat="46.7701" lon="-1.05538">
        <ele>72</ele>
        <time>2010-01-01T02:04:42Z</time>
      </trkpt>
      <trkpt lat="46.77074" lon="-1.0558">
        <ele>70</ele>
        <time>2010-01-01T02:04:54Z</time>
      </trkpt>
      <trkpt lat="46.77123" lon="-1.05597">
        <ele>71</ele>
        <time>2010-01-01T02:05:03Z</time>
      </trkpt>
      <trkpt lat="46.77139" lon="-1.05599">
        <ele>71</ele>
        <time>2010-01-01T02:05:05Z</time>
      </trkpt>
      <trkpt lat="46.77226" lon="-1.05609">
        <ele>71</ele>
        <time>2010-01-01T02:05:20Z</time>
      </trkpt>
      <trkpt lat="46.77243" lon="-1.05605">
        <ele>72</ele>
        <time>2010-01-01T02:05:23Z</time>
      </trkpt>
      <trkpt lat="46.77337" lon="-1.05545">
        <ele>68</ele>
        <time>2010-01-01T02:05:40Z</time>
      </trkpt>
      <trkpt lat="46.77377" lon="-1.05533">
        <ele>66</ele>
        <time>2010-01-01T02:05:47Z</time>
      </trkpt>
      <trkpt lat="46.77432" lon="-1.05526">
        <ele>63</ele>
        <time>2010-01-01T02:05:56Z</time>
      </trkpt>
      <trkpt lat="46.77479" lon="-1.05544">
        <ele>61</ele>
        <time>2010-01-01T02:06:04Z</time>
      </trkpt>
      <trkpt lat="46.77483" lon="-1.05556">
        <ele>61</ele>
        <time>2010-01-01T02:06:05Z</time>
      </trkpt>
      <trkpt lat="46.77504" lon="-1.05595">
        <ele>60</ele>
        <time>2010-01-01T02:06:11Z</time>
      </trkpt>
      <trkpt lat="46.77545" lon="-1.05696">
        <ele>60</ele>
        <time>2010-01-01T02:06:24Z</time>
      </trkpt>
      <trkpt lat="46.77563" lon="-1.05759">
        <ele>59</ele>
        <time>2010-01-01T02:06:32Z</time>
      </trkpt>
      <trkpt lat="46.77568" lon="-1.05797">
        <ele>60</ele>
        <time>2010-01-01T02:06:37Z</time>
      </trkpt>
      <trkpt lat="46.77566" lon="-1.05861">
        <ele>62</ele>
        <time>2010-01-01T02:06:44Z</time>
      </trkpt>
      <trkpt lat="46.77568" lon="-1.05902">
        <ele>63</ele>
        <time>2010-01-01T02:06:49Z</time>
      </trkpt>
      <trkpt lat="46.77574" lon="-1.05939">
        <ele>64</ele>
        <time>2010-01-01T02:06:53Z</time>
      </trkpt>
      <trkpt lat="46.7759" lon="-1.05977">
        <ele>66</ele>
        <time>2010-01-01T02:06:58Z</time>
      </trkpt>
      <trkpt lat="46.77604" lon="-1.06001">
        <ele>66</ele>
        <time>2010-01-01T02:07:02Z</time>
      </trkpt>
      <trkpt lat="46.77638" lon="-1.06039">
        <ele>66</ele>
        <time>2010-01-01T02:07:09Z</time>
      </trkpt>
      <trkpt lat="46.77652" lon="-1.06044">
        <ele>66</ele>
        <time>2010-01-01T02:07:11Z</time>
      </trkpt>
      <trkpt lat="46.77653" lon="-1.06051">
        <ele>67</ele>
        <time>2010-01-01T02:07:12Z</time>
      </trkpt>
      <trkpt lat="46.77662" lon="-1.06058">
        <ele>67</ele>
        <time>2010-01-01T02:07:14Z</time>
      </trkpt>
      <trkpt lat="46.7767" lon="-1.06053">
        <ele>66</ele>
        <time>2010-01-01T02:07:15Z</time>
      </trkpt>
      <trkpt lat="46.77695" lon="-1.06094">
        <ele>70</ele>
        <time>2010-01-01T02:07:22Z</time>
      </trkpt>
      <trkpt lat="46.77762" lon="-1.06162">
        <ele>78</ele>
        <time>2010-01-01T02:07:35Z</time>
      </trkpt>
      <trkpt lat="46.77795" lon="-1.06191">
        <ele>83</ele>
        <time>2010-01-01T02:07:42Z</time>
      </trkpt>
      <trkpt lat="46.77804" lon="-1.06217">
        <ele>84.8</ele>
      </trkpt>
      <trkpt lat="46.77819" lon="-1.06256">
        <ele>88.7</ele>
      </trkpt>
      <trkpt lat="46.77827" lon="-1.06274">
        <ele>89.9</ele>
      </trkpt>
      <trkpt lat="46.77841" lon="-1.06293">
        <ele>91.5</ele>
      </trkpt>
      <trkpt lat="46.77849" lon="-1.06306">
        <ele>92.6</ele>
      </trkpt>
      <trkpt lat="46.77853" lon="-1.06309">
        <ele>92.8</ele>
      </trkpt>
      <trkpt lat="46.77864" lon="-1.06294">
        <ele>92.7</ele>
      </trkpt>
      <trkpt lat="46.77888" lon="-1.06283">
        <ele>95</ele>
        <time>2010-01-01T02:08:02Z</time>
      </trkpt>
      <trkpt lat="46.77909" lon="-1.0628">
        <ele>93.9</ele>
      </trkpt>
      <trkpt lat="46.77938" lon="-1.06288">
        <ele>96</ele>
        <time>2010-01-01T02:08:10Z</time>
      </trkpt>
      <trkpt lat="46.77956" lon="-1.06286">
        <ele>96.7</ele>
      </trkpt>
      <trkpt lat="46.77977" lon="-1.06278">
        <ele>97</ele>
      </trkpt>
      <trkpt lat="46.77997" lon="-1.06269">
        <ele>96.4</ele>
      </trkpt>
      <trkpt lat="46.78014" lon="-1.06261">
        <ele>95.6</ele>
        <time>2010-01-01T02:08:26Z</time>
      </trkpt>
      <trkpt lat="46.78023" lon="-1.06254">
        <ele>95.2</ele>
      </trkpt>
      <trkpt lat="46.78042" lon="-1.06291">
        <ele>97.7</ele>
      </trkpt>
      <trkpt lat="46.78054" lon="-1.06325">
        <ele>98.3</ele>
      </trkpt>
      <trkpt lat="46.78065" lon="-1.06372">
        <ele>99.3</ele>
        <time>2010-01-01T02:08:38Z</time>
      </trkpt>
      <trkpt lat="46.78077" lon="-1.06411">
        <ele>99.3</ele>
        <time>2010-01-01T02:08:43Z</time>
      </trkpt>
      <trkpt lat="46.78099" lon="-1.0648">
        <ele>99</ele>
        <time>2010-01-01T02:08:51Z</time>
      </trkpt>
      <trkpt lat="46.78118" lon="-1.06537">
        <ele>98</ele>
        <time>2010-01-01T02:08:59Z</time>
      </trkpt>
      <trkpt lat="46.78127" lon="-1.06571">
        <ele>98</ele>
        <time>2010-01-01T02:09:03Z</time>
      </trkpt>
      <trkpt lat="46.78142" lon="-1.06694">
        <ele>97</ele>
        <time>2010-01-01T02:09:17Z</time>
      </trkpt>
      <trkpt lat="46.78152" lon="-1.0675">
        <ele>98</ele>
        <time>2010-01-01T02:09:24Z</time>
      </trkpt>
      <trkpt lat="46.78183" lon="-1.0701">
        <ele>102</ele>
        <time>2010-01-01T02:09:54Z</time>
      </trkpt>
      <trkpt lat="46.78418" lon="-1.07795">
        <ele>80</ele>
        <time>2010-01-01T02:11:32Z</time>
      </trkpt>
      <trkpt lat="46.79032" lon="-1.09198">
        <ele>104</ele>
        <time>2010-01-01T02:14:42Z</time>
      </trkpt>
      <trkpt lat="46.79051" lon="-1.09302">
        <ele>104</ele>
        <time>2010-01-01T02:14:54Z</time>
      </trkpt>
      <trkpt lat="46.79088" lon="-1.09606">
        <ele>104</ele>
        <time>2010-01-01T02:15:29Z</time>
      </trkpt>
      <trkpt lat="46.79122" lon="-1.09883">
        <ele>104</ele>
        <time>2010-01-01T02:16:01Z</time>
      </trkpt>
      <trkpt lat="46.79147" lon="-1.10033">
        <ele>102</ele>
        <time>2010-01-01T02:16:19Z</time>
      </trkpt>
      <trkpt lat="46.7919" lon="-1.10131">
        <ele>100</ele>
        <time>2010-01-01T02:16:32Z</time>
      </trkpt>
      <trkpt lat="46.79243" lon="-1.10033">
        <ele>99</ele>
        <time>2010-01-01T02:16:47Z</time>
      </trkpt>
      <trkpt lat="46.79263" lon="-1.09979">
        <ele>98</ele>
        <time>2010-01-01T02:16:54Z</time>
      </trkpt>
      <trkpt lat="46.79403" lon="-1.09868">
        <ele>87</ele>
        <time>2010-01-01T02:17:20Z</time>
      </trkpt>
      <trkpt lat="46.79545" lon="-1.09849">
        <ele>82</ele>
        <time>2010-01-01T02:17:44Z</time>
      </trkpt>
      <trkpt lat="46.79662" lon="-1.09826">
        <ele>84</ele>
        <time>2010-01-01T02:18:04Z</time>
      </trkpt>
      <trkpt lat="46.7971" lon="-1.09779">
        <ele>86</ele>
        <time>2010-01-01T02:18:13Z</time>
      </trkpt>
      <trkpt lat="46.79828" lon="-1.09735">
        <ele>89</ele>
        <time>2010-01-01T02:18:34Z</time>
      </trkpt>
      <trkpt lat="46.8002" lon="-1.09623">
        <ele>88</ele>
        <time>2010-01-01T02:19:08Z</time>
      </trkpt>
      <trkpt lat="46.80082" lon="-1.09554">
        <ele>89</ele>
        <time>2010-01-01T02:19:21Z</time>
      </trkpt>
      <trkpt lat="46.80113" lon="-1.09499">
        <ele>89</ele>
        <time>2010-01-01T02:19:29Z</time>
      </trkpt>
      <trkpt lat="46.80175" lon="-1.09347">
        <ele>89</ele>
        <time>2010-01-01T02:19:49Z</time>
      </trkpt>
      <trkpt lat="46.80344" lon="-1.09001">
        <ele>97</ele>
        <time>2010-01-01T02:20:38Z</time>
      </trkpt>
      <trkpt lat="46.80344" lon="-1.09002">
        <ele>97</ele>
        <time>2010-01-01T02:20:38Z</time>
      </trkpt>
      <trkpt lat="46.80383" lon="-1.08913">
        <ele>96</ele>
        <time>2010-01-01T02:20:50Z</time>
      </trkpt>
      <trkpt lat="46.8043" lon="-1.08842">
        <ele>97</ele>
        <time>2010-01-01T02:21:01Z</time>
      </trkpt>
      <trkpt lat="46.80397" lon="-1.08799">
        <ele>95.7</ele>
        <time>2010-01-01T02:21:04Z</time>
      </trkpt>
      <trkpt lat="46.80373" lon="-1.08745">
        <ele>96.6</ele>
        <time>2010-01-01T02:21:11Z</time>
      </trkpt>
      <trkpt lat="46.80353" lon="-1.08653">
        <ele>98</ele>
        <time>2010-01-01T02:21:16Z</time>
      </trkpt>
      <trkpt lat="46.8034" lon="-1.08598">
        <ele>98.1</ele>
      </trkpt>
      <trkpt lat="46.8032" lon="-1.0852">
        <ele>98.5</ele>
      </trkpt>
      <trkpt lat="46.80299" lon="-1.08422">
        <ele>99</ele>
      </trkpt>
      <trkpt lat="46.80273" lon="-1.08316">
        <ele>100</ele>
      </trkpt>
      <trkpt lat="46.8026" lon="-1.08256">
        <ele>100</ele>
      </trkpt>
      <trkpt lat="46.80214" lon="-1.08055">
        <ele>100.7</ele>
      </trkpt>
      <trkpt lat="46.80192" lon="-1.07969">
        <ele>100.9</ele>
      </trkpt>
      <trkpt lat="46.80176" lon="-1.07963">
        <ele>100.3</ele>
      </trkpt>
      <trkpt lat="46.80093" lon="-1.07905">
        <ele>98.6</ele>
      </trkpt>
      <trkpt lat="46.80005" lon="-1.07853">
        <ele>98.1</ele>
      </trkpt>
      <trkpt lat="46.79978" lon="-1.07835">
        <ele>98</ele>
      </trkpt>
      <trkpt lat="46.79951" lon="-1.07812">
        <ele>98</ele>
      </trkpt>
      <trkpt lat="46.79894" lon="-1.07742">
        <ele>98.4</ele>
      </trkpt>
      <trkpt lat="46.79825" lon="-1.07645">
        <ele>98.7</ele>
      </trkpt>
      <trkpt lat="46.79806" lon="-1.07621">
        <ele>98</ele>
      </trkpt>
      <trkpt lat="46.79832" lon="-1.07553">
        <ele>98</ele>
      </trkpt>
      <trkpt lat="46.79913" lon="-1.07363">
        <ele>96</ele>
      </trkpt>
      <trkpt lat="46.79985" lon="-1.07178">
        <ele>96</ele>
      </trkpt>
      <trkpt lat="46.80015" lon="-1.07111">
        <ele>96.5</ele>
      </trkpt>
      <trkpt lat="46.79974" lon="-1.07074">
        <ele>96.4</ele>
      </trkpt>
      <trkpt lat="46.79955" lon="-1.07052">
        <ele>96.4</ele>
      </trkpt>
      <trkpt lat="46.79948" lon="-1.07032">
        <ele>96.1</ele>
      </trkpt>
      <trkpt lat="46.79935" lon="-1.06968">
        <ele>97.1</ele>
      </trkpt>
      <trkpt lat="46.79926" lon="-1.06939">
        <ele>97.3</ele>
      </trkpt>
      <trkpt lat="46.79876" lon="-1.06827">
        <ele>95.4</ele>
      </trkpt>
      <trkpt lat="46.79861" lon="-1.06797">
        <ele>94</ele>
      </trkpt>
      <trkpt lat="46.7984" lon="-1.06767">
        <ele>92.9</ele>
      </trkpt>
      <trkpt lat="46.7979" lon="-1.06725">
        <ele>90</ele>
      </trkpt>
      <trkpt lat="46.79773" lon="-1.06702">
        <ele>89</ele>
      </trkpt>
      <trkpt lat="46.79748" lon="-1.06633">
        <ele>86.8</ele>
      </trkpt>
      <trkpt lat="46.79744" lon="-1.06616">
        <ele>86.2</ele>
      </trkpt>
      <trkpt lat="46.79742" lon="-1.06598">
        <ele>85.9</ele>
      </trkpt>
      <trkpt lat="46.79744" lon="-1.065">
        <ele>85.8</ele>
      </trkpt>
      <trkpt lat="46.7974" lon="-1.06478">
        <ele>86.7</ele>
      </trkpt>
      <trkpt lat="46.79714" lon="-1.06398">
        <ele>89.9</ele>
      </trkpt>
      <trkpt lat="46.79679" lon="-1.06282">
        <ele>92.3</ele>
      </trkpt>
      <trkpt lat="46.79666" lon="-1.06231">
        <ele>93</ele>
      </trkpt>
      <trkpt lat="46.79737" lon="-1.06197">
        <ele>93.9</ele>
        <extensions>
          <visugpx:TrkExtension xmlns:visugpx="https://www.visugpx.com/editgpx/">
            <visugpx:node>1</visugpx:node>
            </visugpx:TrkExtension>
        </extensions>
      </trkpt>
      <trkpt lat="46.79745" lon="-1.06193">
        <ele>94</ele>
      </trkpt>
      <trkpt lat="46.7985" lon="-1.06178">
        <ele>92.8</ele>
      </trkpt>
      <trkpt lat="46.79878" lon="-1.06164">
        <ele>92.5</ele>
      </trkpt>
      <trkpt lat="46.799" lon="-1.06141">
        <ele>92.5</ele>
      </trkpt>
      <trkpt lat="46.79956" lon="-1.0606">
        <ele>91.9</ele>
      </trkpt>
      <trkpt lat="46.80041" lon="-1.0594">
        <ele>95.5</ele>
      </trkpt>
      <trkpt lat="46.80061" lon="-1.0592">
        <ele>94.8</ele>
      </trkpt>
      <trkpt lat="46.80082" lon="-1.05911">
        <ele>94.3</ele>
      </trkpt>
      <trkpt lat="46.80101" lon="-1.05907">
        <ele>93.7</ele>
      </trkpt>
      <trkpt lat="46.80128" lon="-1.05908">
        <ele>93.3</ele>
      </trkpt>
      <trkpt lat="46.80261" lon="-1.0595">
        <ele>90.5</ele>
      </trkpt>
      <trkpt lat="46.80283" lon="-1.0595">
        <ele>90.2</ele>
      </trkpt>
      <trkpt lat="46.803" lon="-1.05945">
        <ele>90.8</ele>
      </trkpt>
      <trkpt lat="46.8035" lon="-1.05904">
        <ele>91.5</ele>
      </trkpt>
      <trkpt lat="46.8037" lon="-1.05894">
        <ele>91.7</ele>
      </trkpt>
      <trkpt lat="46.80396" lon="-1.05888">
        <ele>91.9</ele>
      </trkpt>
      <trkpt lat="46.80433" lon="-1.05881">
        <ele>91.6</ele>
      </trkpt>
      <trkpt lat="46.80462" lon="-1.0587">
        <ele>92</ele>
      </trkpt>
      <trkpt lat="46.80506" lon="-1.0584">
        <ele>92.6</ele>
      </trkpt>
      <trkpt lat="46.80527" lon="-1.0582">
        <ele>93.5</ele>
      </trkpt>
      <trkpt lat="46.80543" lon="-1.05799">
        <ele>93.9</ele>
      </trkpt>
      <trkpt lat="46.80572" lon="-1.0575">
        <ele>94.2</ele>
      </trkpt>
      <trkpt lat="46.8059" lon="-1.05727">
        <ele>94.4</ele>
      </trkpt>
      <trkpt lat="46.80615" lon="-1.05703">
        <ele>94.3</ele>
      </trkpt>
      <trkpt lat="46.80696" lon="-1.05633">
        <ele>93.8</ele>
      </trkpt>
      <trkpt lat="46.80743" lon="-1.0558">
        <ele>94.4</ele>
      </trkpt>
      <trkpt lat="46.80831" lon="-1.05474">
        <ele>95.8</ele>
      </trkpt>
      <trkpt lat="46.80849" lon="-1.05456">
        <ele>96</ele>
      </trkpt>
      <trkpt lat="46.80868" lon="-1.05442">
        <ele>96.4</ele>
      </trkpt>
      <trkpt lat="46.80886" lon="-1.05432">
        <ele>96.9</ele>
      </trkpt>
      <trkpt lat="46.80905" lon="-1.05428">
        <ele>97.4</ele>
      </trkpt>
      <trkpt lat="46.80925" lon="-1.05428">
        <ele>98</ele>
      </trkpt>
      <trkpt lat="46.80943" lon="-1.05432">
        <ele>98.5</ele>
      </trkpt>
      <trkpt lat="46.81005" lon="-1.05458">
        <ele>100.2</ele>
      </trkpt>
      <trkpt lat="46.81042" lon="-1.05459">
        <ele>101.5</ele>
      </trkpt>
      <trkpt lat="46.8106" lon="-1.0546">
        <ele>102.2</ele>
      </trkpt>
      <trkpt lat="46.81124" lon="-1.05475">
        <ele>103.6</ele>
        <extensions>
          <visugpx:TrkExtension xmlns:visugpx="https://www.visugpx.com/editgpx/">
            <visugpx:node>2</visugpx:node>
            </visugpx:TrkExtension>
        </extensions>
      </trkpt>
      <trkpt lat="46.81198" lon="-1.05493">
        <ele>106</ele>
      </trkpt>
      <trkpt lat="46.81236" lon="-1.05504">
        <ele>106</ele>
      </trkpt>
      <trkpt lat="46.81557" lon="-1.05632">
        <ele>106</ele>
      </trkpt>
      <trkpt lat="46.81594" lon="-1.05644">
        <ele>105.5</ele>
      </trkpt>
      <trkpt lat="46.81645" lon="-1.05651">
        <ele>105</ele>
      </trkpt>
      <trkpt lat="46.81676" lon="-1.05655">
        <ele>104.8</ele>
      </trkpt>
      <trkpt lat="46.81802" lon="-1.0567">
        <ele>103.9</ele>
      </trkpt>
      <trkpt lat="46.81877" lon="-1.05679">
        <ele>103.2</ele>
      </trkpt>
      <trkpt lat="46.81924" lon="-1.05676">
        <ele>103.2</ele>
      </trkpt>
      <trkpt lat="46.81976" lon="-1.05653">
        <ele>104</ele>
      </trkpt>
      <trkpt lat="46.8204" lon="-1.05625">
        <ele>105.2</ele>
      </trkpt>
      <trkpt lat="46.82103" lon="-1.05591">
        <ele>106.5</ele>
      </trkpt>
      <trkpt lat="46.82281" lon="-1.05512">
        <ele>102.9</ele>
      </trkpt>
      <trkpt lat="46.82366" lon="-1.05469">
        <ele>99.8</ele>
      </trkpt>
      <trkpt lat="46.82633" lon="-1.05344">
        <ele>101</ele>
      </trkpt>
      <trkpt lat="46.82733" lon="-1.05296">
        <ele>100</ele>
      </trkpt>
      <trkpt lat="46.82893" lon="-1.05224">
        <ele>98</ele>
      </trkpt>
      <trkpt lat="46.82935" lon="-1.0521">
        <ele>98.7</ele>
      </trkpt>
      <trkpt lat="46.82981" lon="-1.05206">
        <ele>99.2</ele>
        <extensions>
          <visugpx:TrkExtension xmlns:visugpx="https://www.visugpx.com/editgpx/">
            <visugpx:node>3</visugpx:node>
            </visugpx:TrkExtension>
        </extensions>
      </trkpt>
      <trkpt lat="46.82989" lon="-1.05205">
        <ele>99.4</ele>
      </trkpt>
      <trkpt lat="46.8305" lon="-1.05193">
        <ele>101.1</ele>
      </trkpt>
      <trkpt lat="46.83153" lon="-1.05164">
        <ele>103.6</ele>
      </trkpt>
      <trkpt lat="46.83289" lon="-1.05117">
        <ele>106.4</ele>
      </trkpt>
      <trkpt lat="46.83315" lon="-1.05247">
        <ele>107</ele>
      </trkpt>
      <trkpt lat="46.83436" lon="-1.05195">
        <ele>106.3</ele>
      </trkpt>
      <trkpt lat="46.83643" lon="-1.0515">
        <ele>99.9</ele>
      </trkpt>
      <trkpt lat="46.8367" lon="-1.05144">
        <ele>99.1</ele>
      </trkpt>
      <trkpt lat="46.83718" lon="-1.05133">
        <ele>97.2</ele>
      </trkpt>
      <trkpt lat="46.8374" lon="-1.05123">
        <ele>96.6</ele>
      </trkpt>
      <trkpt lat="46.83746" lon="-1.0512">
        <ele>96.4</ele>
        <extensions>
          <visugpx:TrkExtension xmlns:visugpx="https://www.visugpx.com/editgpx/">
            <visugpx:node>4</visugpx:node>
            </visugpx:TrkExtension>
        </extensions>
      </trkpt>
      <trkpt lat="46.83769" lon="-1.05105">
        <ele>96.1</ele>
      </trkpt>
      <trkpt lat="46.83792" lon="-1.05086">
        <ele>95</ele>
      </trkpt>
      <trkpt lat="46.83815" lon="-1.05076">
        <ele>94.2</ele>
      </trkpt>
      <trkpt lat="46.83913" lon="-1.05048">
        <ele>92</ele>
      </trkpt>
      <trkpt lat="46.83979" lon="-1.05033">
        <ele>93.3</ele>
      </trkpt>
      <trkpt lat="46.84058" lon="-1.04989">
        <ele>98.1</ele>
      </trkpt>
      <trkpt lat="46.8428" lon="-1.04848">
        <ele>106</ele>
      </trkpt>
      <trkpt lat="46.84306" lon="-1.0482">
        <ele>106</ele>
      </trkpt>
      <trkpt lat="46.84332" lon="-1.04786">
        <ele>107</ele>
      </trkpt>
      <trkpt lat="46.84356" lon="-1.04748">
        <ele>107.8</ele>
      </trkpt>
      <trkpt lat="46.84358" lon="-1.04741">
        <ele>107.9</ele>
      </trkpt>
      <trkpt lat="46.84364" lon="-1.04721">
        <ele>108</ele>
      </trkpt>
      <trkpt lat="46.84366" lon="-1.04694">
        <ele>108</ele>
      </trkpt>
      <trkpt lat="46.84366" lon="-1.04655">
        <ele>108</ele>
      </trkpt>
      <trkpt lat="46.84361" lon="-1.04628">
        <ele>108</ele>
      </trkpt>
      <trkpt lat="46.84317" lon="-1.04461">
        <ele>108</ele>
      </trkpt>
      <trkpt lat="46.84301" lon="-1.04374">
        <ele>108</ele>
      </trkpt>
      <trkpt lat="46.8429" lon="-1.04287">
        <ele>108.7</ele>
      </trkpt>
      <trkpt lat="46.84287" lon="-1.04214">
        <ele>109.1</ele>
      </trkpt>
      <trkpt lat="46.84289" lon="-1.04134">
        <ele>109.3</ele>
      </trkpt>
      <trkpt lat="46.84334" lon="-1.03763">
        <ele>110</ele>
      </trkpt>
      <trkpt lat="46.84349" lon="-1.03666">
        <ele>110</ele>
      </trkpt>
      <trkpt lat="46.84358" lon="-1.03616">
        <ele>109.9</ele>
        <extensions>
          <visugpx:TrkExtension xmlns:visugpx="https://www.visugpx.com/editgpx/">
            <visugpx:node>5</visugpx:node>
            </visugpx:TrkExtension>
        </extensions>
      </trkpt>
      <trkpt lat="46.84369" lon="-1.03557">
        <ele>110</ele>
      </trkpt>
      <trkpt lat="46.8438" lon="-1.03499">
        <ele>110</ele>
      </trkpt>
      <trkpt lat="46.84397" lon="-1.03446">
        <ele>110</ele>
      </trkpt>
      <trkpt lat="46.84435" lon="-1.03352">
        <ele>110.6</ele>
      </trkpt>
      <trkpt lat="46.84453" lon="-1.03296">
        <ele>111</ele>
      </trkpt>
      <trkpt lat="46.84466" lon="-1.03246">
        <ele>110.8</ele>
      </trkpt>
      <trkpt lat="46.84484" lon="-1.03207">
        <ele>111.5</ele>
      </trkpt>
      <trkpt lat="46.84489" lon="-1.03166">
        <ele>112</ele>
      </trkpt>
      <trkpt lat="46.84473" lon="-1.02984">
        <ele>112</ele>
      </trkpt>
      <trkpt lat="46.84467" lon="-1.02883">
        <ele>112</ele>
      </trkpt>
      <trkpt lat="46.84486" lon="-1.02775">
        <ele>113</ele>
      </trkpt>
      <trkpt lat="46.84495" lon="-1.02734">
        <ele>113</ele>
      </trkpt>
      <trkpt lat="46.84517" lon="-1.02659">
        <ele>113</ele>
      </trkpt>
      <trkpt lat="46.84549" lon="-1.0256">
        <ele>113.8</ele>
      </trkpt>
      <trkpt lat="46.84563" lon="-1.02513">
        <ele>114</ele>
      </trkpt>
      <trkpt lat="46.84574" lon="-1.02475">
        <ele>114.6</ele>
      </trkpt>
      <trkpt lat="46.84603" lon="-1.02366">
        <ele>114</ele>
      </trkpt>
      <trkpt lat="46.84608" lon="-1.02343">
        <ele>113.9</ele>
      </trkpt>
      <trkpt lat="46.84607" lon="-1.0231">
        <ele>113.9</ele>
      </trkpt>
      <trkpt lat="46.84558" lon="-1.01715">
        <ele>108.2</ele>
      </trkpt>
      <trkpt lat="46.84552" lon="-1.01688">
        <ele>109.2</ele>
      </trkpt>
      <trkpt lat="46.84542" lon="-1.01664">
        <ele>110</ele>
      </trkpt>
      <trkpt lat="46.84501" lon="-1.01593">
        <ele>111.1</ele>
      </trkpt>
      <trkpt lat="46.84496" lon="-1.01576">
        <ele>111.2</ele>
      </trkpt>
      <trkpt lat="46.84493" lon="-1.01556">
        <ele>111.7</ele>
      </trkpt>
      <trkpt lat="46.84494" lon="-1.01534">
        <ele>111.2</ele>
      </trkpt>
      <trkpt lat="46.845" lon="-1.01511">
        <ele>110.4</ele>
      </trkpt>
      <trkpt lat="46.84511" lon="-1.01492">
        <ele>109.7</ele>
      </trkpt>
      <trkpt lat="46.84522" lon="-1.01506">
        <ele>109.4</ele>
      </trkpt>
      <trkpt lat="46.84539" lon="-1.01512">
        <ele>109.7</ele>
      </trkpt>
      <trkpt lat="46.84545" lon="-1.01496">
        <ele>109.6</ele>
      </trkpt>
      <trkpt lat="46.84549" lon="-1.01491">
        <ele>109.6</ele>
      </trkpt>
      <trkpt lat="46.84555" lon="-1.01487">
        <ele>109.5</ele>
      </trkpt>
      <trkpt lat="46.84562" lon="-1.01487">
        <ele>109.2</ele>
      </trkpt>
      <trkpt lat="46.84568" lon="-1.01489">
        <ele>109</ele>
      </trkpt>
      <trkpt lat="46.84574" lon="-1.01495">
        <ele>109</ele>
      </trkpt>
      <trkpt lat="46.84578" lon="-1.01503">
        <ele>109.2</ele>
      </trkpt>
      <trkpt lat="46.8458" lon="-1.01512">
        <ele>109.1</ele>
      </trkpt>
      <trkpt lat="46.8458" lon="-1.01522">
        <ele>109.1</ele>
      </trkpt>
      <trkpt lat="46.84588" lon="-1.01525">
        <ele>109</ele>
      </trkpt>
      <trkpt lat="46.84587" lon="-1.01513">
        <ele>108.9</ele>
      </trkpt>
      <trkpt lat="46.84594" lon="-1.01518">
        <ele>108.9</ele>
      </trkpt>
      <trkpt lat="46.84612" lon="-1.01524">
        <ele>108.9</ele>
      </trkpt>
      <trkpt lat="46.84676" lon="-1.01538">
        <ele>108.8</ele>
      </trkpt>
      <trkpt lat="46.84746" lon="-1.01545">
        <ele>110.9</ele>
      </trkpt>
      <trkpt lat="46.84749" lon="-1.01545">
        <ele>111</ele>
        <extensions>
          <visugpx:TrkExtension xmlns:visugpx="https://www.visugpx.com/editgpx/">
            <visugpx:node>6</visugpx:node>
            </visugpx:TrkExtension>
        </extensions>
      </trkpt>
      <trkpt lat="46.84872" lon="-1.0155">
        <ele>113.4</ele>
      </trkpt>
      <trkpt lat="46.84903" lon="-1.01554">
        <ele>114.5</ele>
      </trkpt>
      <trkpt lat="46.84899" lon="-1.01569">
        <ele>114.2</ele>
      </trkpt>
      <trkpt lat="46.84936" lon="-1.01577">
        <ele>114.9</ele>
      </trkpt>
      <trkpt lat="46.84962" lon="-1.01586">
        <ele>115.7</ele>
      </trkpt>
      <trkpt lat="46.84985" lon="-1.01595">
        <ele>116</ele>
      </trkpt>
      <trkpt lat="46.85016" lon="-1.01612">
        <ele>116</ele>
      </trkpt>
      <trkpt lat="46.85149" lon="-1.01706">
        <ele>113.7</ele>
      </trkpt>
      <trkpt lat="46.85172" lon="-1.01721">
        <ele>112.9</ele>
      </trkpt>
      <trkpt lat="46.85197" lon="-1.01735">
        <ele>112.4</ele>
      </trkpt>
      <trkpt lat="46.85222" lon="-1.01747">
        <ele>111.1</ele>
      </trkpt>
      <trkpt lat="46.85263" lon="-1.01761">
        <ele>109.2</ele>
      </trkpt>
      <trkpt lat="46.85308" lon="-1.01771">
        <ele>107.8</ele>
      </trkpt>
      <trkpt lat="46.85356" lon="-1.01773">
        <ele>105.2</ele>
      </trkpt>
      <trkpt lat="46.85387" lon="-1.0177">
        <ele>104.1</ele>
      </trkpt>
      <trkpt lat="46.85423" lon="-1.01763">
        <ele>102.3</ele>
      </trkpt>
      <trkpt lat="46.85466" lon="-1.01748">
        <ele>101.2</ele>
      </trkpt>
      <trkpt lat="46.85508" lon="-1.01728">
        <ele>100.9</ele>
      </trkpt>
      <trkpt lat="46.85654" lon="-1.01633">
        <ele>106</ele>
      </trkpt>
      <trkpt lat="46.85677" lon="-1.01612">
        <ele>107</ele>
      </trkpt>
      <trkpt lat="46.85686" lon="-1.01605">
        <ele>107.2</ele>
      </trkpt>
      <trkpt lat="46.85694" lon="-1.016">
        <ele>107.4</ele>
      </trkpt>
      <trkpt lat="46.85724" lon="-1.01579">
        <ele>108.1</ele>
      </trkpt>
      <trkpt lat="46.85734" lon="-1.01571">
        <ele>108.4</ele>
      </trkpt>
      <trkpt lat="46.85738" lon="-1.01565">
        <ele>108.6</ele>
      </trkpt>
      <trkpt lat="46.85745" lon="-1.01547">
        <ele>108.8</ele>
      </trkpt>
      <trkpt lat="46.85744" lon="-1.01545">
        <ele>108.8</ele>
      </trkpt>
      <trkpt lat="46.85745" lon="-1.0154">
        <ele>108.8</ele>
      </trkpt>
      <trkpt lat="46.85747" lon="-1.01536">
        <ele>108.9</ele>
      </trkpt>
      <trkpt lat="46.85753" lon="-1.01531">
        <ele>109.1</ele>
      </trkpt>
      <trkpt lat="46.8576" lon="-1.01534">
        <ele>109.4</ele>
      </trkpt>
      <trkpt lat="46.85772" lon="-1.01536">
        <ele>109.8</ele>
      </trkpt>
      <trkpt lat="46.85786" lon="-1.01531">
        <ele>110</ele>
      </trkpt>
      <trkpt lat="46.85817" lon="-1.01501">
        <ele>110</ele>
      </trkpt>
      <trkpt lat="46.85825" lon="-1.01491">
        <ele>109.9</ele>
      </trkpt>
      <trkpt lat="46.85837" lon="-1.01478">
        <ele>110.1</ele>
      </trkpt>
      <trkpt lat="46.8585" lon="-1.01462">
        <ele>110.5</ele>
      </trkpt>
      <trkpt lat="46.85851" lon="-1.01456">
        <ele>110.4</ele>
      </trkpt>
      <trkpt lat="46.85856" lon="-1.0145">
        <ele>110.7</ele>
      </trkpt>
      <trkpt lat="46.85862" lon="-1.01447">
        <ele>111</ele>
      </trkpt>
      <trkpt lat="46.85867" lon="-1.01449">
        <ele>111</ele>
      </trkpt>
      <trkpt lat="46.85869" lon="-1.0145">
        <ele>111</ele>
      </trkpt>
      <trkpt lat="46.85881" lon="-1.01446">
        <ele>111</ele>
      </trkpt>
      <trkpt lat="46.859" lon="-1.01432">
        <ele>111</ele>
      </trkpt>
      <trkpt lat="46.85911" lon="-1.01423">
        <ele>111</ele>
      </trkpt>
      <trkpt lat="46.8596" lon="-1.01383">
        <ele>112</ele>
        <extensions>
          <visugpx:TrkExtension xmlns:visugpx="https://www.visugpx.com/editgpx/">
            <visugpx:node>7</visugpx:node>
            </visugpx:TrkExtension>
        </extensions>
      </trkpt>
      <trkpt lat="46.85974" lon="-1.01372">
        <ele>112</ele>
      </trkpt>
      <trkpt lat="46.86018" lon="-1.01336">
        <ele>113</ele>
      </trkpt>
      <trkpt lat="46.86055" lon="-1.01308">
        <ele>114</ele>
      </trkpt>
      <trkpt lat="46.8608" lon="-1.01279">
        <ele>114.1</ele>
      </trkpt>
      <trkpt lat="46.86137" lon="-1.01206">
        <ele>115</ele>
      </trkpt>
      <trkpt lat="46.86175" lon="-1.01156">
        <ele>115.4</ele>
      </trkpt>
      <trkpt lat="46.86184" lon="-1.01141">
        <ele>115.9</ele>
      </trkpt>
      <trkpt lat="46.8618" lon="-1.01132">
        <ele>116</ele>
      </trkpt>
      <trkpt lat="46.86156" lon="-1.01111">
        <ele>115.6</ele>
      </trkpt>
      <trkpt lat="46.86177" lon="-1.01057">
        <ele>116.4</ele>
      </trkpt>
      <trkpt lat="46.86195" lon="-1.01007">
        <ele>117</ele>
      </trkpt>
      <trkpt lat="46.86207" lon="-1.00973">
        <ele>117.5</ele>
      </trkpt>
      <trkpt lat="46.86217" lon="-1.00945">
        <ele>117.8</ele>
      </trkpt>
      <trkpt lat="46.86239" lon="-1.00889">
        <ele>118.6</ele>
      </trkpt>
      <trkpt lat="46.86248" lon="-1.00863">
        <ele>119.8</ele>
      </trkpt>
      <trkpt lat="46.86249" lon="-1.00861">
        <ele>119.9</ele>
      </trkpt>
      <trkpt lat="46.86252" lon="-1.0085">
        <ele>120</ele>
      </trkpt>
      <trkpt lat="46.86256" lon="-1.00824">
        <ele>119.7</ele>
      </trkpt>
      <trkpt lat="46.86257" lon="-1.00807">
        <ele>119.3</ele>
      </trkpt>
      <trkpt lat="46.86256" lon="-1.00786">
        <ele>119.2</ele>
      </trkpt>
      <trkpt lat="46.86248" lon="-1.00733">
        <ele>117.4</ele>
      </trkpt>
      <trkpt lat="46.86236" lon="-1.0068">
        <ele>116.2</ele>
      </trkpt>
      <trkpt lat="46.86272" lon="-1.00663">
        <ele>117.5</ele>
      </trkpt>
      <trkpt lat="46.86324" lon="-1.00626">
        <ele>118.2</ele>
      </trkpt>
      <trkpt lat="46.86326" lon="-1.00624">
        <ele>118.2</ele>
        <extensions>
          <visugpx:TrkExtension xmlns:visugpx="https://www.visugpx.com/editgpx/">
            <visugpx:node>9</visugpx:node>
            </visugpx:TrkExtension>
        </extensions>
      </trkpt>
      <trkpt lat="46.86326" lon="-1.00624">
        <ele>118.2</ele>
      </trkpt>
      <trkpt lat="46.8634" lon="-1.0061">
        <ele>118.5</ele>
        <extensions>
          <visugpx:TrkExtension xmlns:visugpx="https://www.visugpx.com/editgpx/">
            <visugpx:node>10</visugpx:node>
            </visugpx:TrkExtension>
        </extensions>
      </trkpt>
    </trkseg>
  </trk>
</gpx>